GFSSW_sfc_dewp_012.txt.gz
Dewpoint
57 56 56 57 57 57 58 59 59 60 60 60 60 61 61 62 60 43 36 43 49 59 59 51 49 45 46 45 49 46 38 35 35 35 35 36 30 32 36 33 36 36 36 38 41
59 59 59 59 59 59 60 60 60 60 60 61 61 61 61 62 48 37 44 57 55 59 47 45 41 42 41 41 42 37 34 33 37 38 36 36 29 29 31 35 35 36 37 39 46
56 58 59 59 59 59 59 59 59 60 60 61 61 61 61 60 34 29 57 58 54 53 46 45 45 43 37 40 40 38 30 31 37 38 38 36 31 33 32 33 34 34 35 38 45
57 58 58 59 59 59 59 59 60 60 60 60 60 62 62 47 10 31 62 59 54 51 40 41 38 37 36 33 38 33 38 39 40 37 36 32 32 29 33 30 35 35 36 38 42
58 58 58 58 58 58 58 58 59 59 59 59 60 62 46 32 28 34 61 56 43 41 39 40 35 36 33 35 35 34 34 36 37 36 32 33 31 29 29 32 35 37 37 38 39
58 58 59 58 58 58 58 59 59 59 59 59 60 60 39 22 28 39 41 34 38 39 38 40 38 37 33 31 31 32 33 33 34 34 33 30 31 31 31 29 33 36 36 37 38
58 58 58 58 58 58 58 59 59 59 59 59 59 51 37 25 28 33 35 30 33 38 38 41 40 36 34 29 29 29 29 29 31 33 32 31 27 29 30 33 31 35 35 37 38
58 58 58 58 58 58 58 59 59 59 59 59 60 41 29 32 30 32 31 27 31 35 39 39 41 39 36 33 27 25 26 25 27 32 32 27 23 26 28 32 31 33 35 35 36
57 57 57 58 58 58 59 58 58 57 58 59 45 39 28 42 21 24 26 27 31 34 37 35 38 35 33 28 26 24 19 21 23 29 30 26 25 26 27 32 31 32 33 34 35
56 56 57 58 58 57 57 55 53 53 54 51 44 20 24 23 25 26 25 30 33 35 34 32 34 31 29 27 20 20 20 21 18 21 30 27 26 27 27 32 31 32 33 34 34
55 55 55 56 57 57 50 42 32 32 34 18 24 17 24 24 26 24 28 29 33 32 27 32 27 22 26 28 26 20 20 19 18 23 27 27 27 26 27 33 32 33 34 34 34
54 54 55 55 56 56 49 38 35 36 33 37 36 36 37 31 25 21 29 22 29 26 31 29 25 24 27 29 29 27 25 23 23 24 26 25 23 24 26 28 29 30 31 34 35
55 55 55 56 56 46 37 41 43 38 28 29 35 34 32 32 30 22 27 28 27 27 29 24 18 31 29 27 26 25 25 23 22 24 24 25 21 21 26 27 30 30 30 30 32
55 55 55 55 41 35 41 47 43 37 24 24 30 28 28 31 28 28 28 26 27 23 27 28 30 28 27 27 26 22 25 25 25 24 20 24 16 15 19 22 26 28 29 30 31
54 54 55 48 31 41 43 49 41 33 12 28 27 29 27 26 25 30 29 31 23 25 28 22 27 27 29 28 28 26 29 28 29 26 25 23 21 17 20 19 20 21 24 29 30
54 54 54 48 41 42 44 43 35 22 14 26 27 24 23 25 25 31 29 30 29 28 27 26 28 27 27 28 29 29 27 28 30 25 22 21 21 16 17 17 18 18 20 21 23
54 54 51 50 41 44 43 33 22 18 27 30 32 33 25 22 23 26 27 23 19 17 18 20 22 28 27 24 26 27 23 22 20 22 20 20 20 16 17 18 18 18 19 20 21
53 55 54 50 50 48 34 27 21 29 30 34 33 33 26 32 27 28 26 25 26 23 22 20 20 21 25 24 20 25 23 21 17 17 16 21 19 17 20 21 22 21 21 21 21
52 48 48 42 46 40 31 24 25 31 32 32 31 28 29 31 31 32 29 26 35 39 29 27 22 31 33 30 25 24 24 24 20 19 19 19 20 20 20 20 22 21 22 24 25
48 46 43 39 43 36 30 30 31 33 33 34 29 31 28 32 31 29 30 40 41 41 42 37 34 34 33 34 30 26 26 23 24 19 18 19 19 20 20 20 24 28 29 29 28
41 40 42 37 40 35 29 31 34 34 23 27 32 31 34 26 28 28 28 37 39 37 41 39 37 32 35 33 34 33 30 27 25 24 25 26 24 23 28 29 28 29 29 34 35
34 30 36 37 33 35 32 32 34 27 23 24 28 31 29 29 26 29 33 35 31 29 32 38 37 28 26 29 35 34 33 34 31 28 28 27 25 29 28 24 22 23 30 35 37
32 30 32 36 29 21 21 17 28 21 23 25 23 28 26 25 18 25 26 31 32 29 27 32 30 22 17 19 29 29 29 29 29 32 27 25 25 27 27 21 21 19 36 38 38
30 5 23 31 31 22 24 17 20 25 27 27 25 28 26 24 23 22 24 28 30 29 35 34 30 26 21 24 27 24 23 22 21 21 18 21 25 24 23 24 23 29 37 37 35
33 32 32 22 24 27 27 25 21 22 30 27 24 29 28 26 25 24 24 25 30 32 33 29 25 24 23 23 24 23 23 23 21 21 20 22 21 22 25 25 27 35 36 34 32
32 27 31 29 29 24 25 18 23 29 29 26 24 30 30 28 27 26 28 29 29 29 28 29 26 25 24 23 22 21 22 22 22 22 21 20 21 27 37 37 35 32 33 33 33
38 37 27 29 27 21 20 25 29 28 26 29 29 30 29 29 29 31 33 32 32 30 29 27 25 22 19 21 23 20 19 22 22 25 22 23 32 32 32 32 34 34 35 34 34

GFSSW_sfc_dewp_015.txt.gz
Dewpoint
57 56 56 56 56 57 58 59 59 59 60 60 60 61 61 62 60 41 32 41 48 59 58 49 47 47 47 48 50 47 43 37 39 38 40 37 36 32 35 35 37 39 37 39 43
59 59 59 58 59 59 59 59 59 59 60 61 61 60 60 62 49 36 42 54 55 58 47 45 43 45 44 44 45 43 40 37 40 40 39 38 35 32 33 34 36 36 38 40 48
57 58 58 58 58 59 59 59 59 59 60 60 60 60 61 60 32 27 55 57 55 50 45 44 43 42 39 42 39 37 37 34 34 41 40 37 33 33 34 35 35 36 37 40 47
58 58 58 58 58 59 59 59 59 59 60 60 60 61 61 47 16 30 61 59 55 49 41 42 40 40 38 35 37 35 38 39 41 40 35 34 32 32 36 37 35 37 37 40 46
57 58 58 58 58 58 58 59 59 59 59 59 59 61 45 27 28 33 59 52 41 40 40 41 37 37 34 34 36 35 35 36 40 40 37 34 34 33 32 34 34 37 38 39 43
58 58 58 58 59 58 58 59 59 59 59 59 60 60 39 22 29 40 40 33 39 39 39 41 38 37 34 32 31 32 33 34 35 35 35 32 35 33 34 33 31 35 36 38 40
58 58 58 58 58 59 58 59 59 59 59 59 59 48 34 19 32 32 35 31 35 40 40 41 40 38 35 33 31 29 29 32 32 33 34 34 32 31 33 32 31 31 34 37 39
57 57 57 58 58 58 59 59 59 59 59 58 59 41 26 31 36 33 33 30 34 38 41 44 44 40 36 35 31 26 27 28 28 32 34 31 27 30 30 31 32 31 31 36 37
56 56 57 57 58 57 57 57 57 57 57 59 47 39 21 42 23 25 31 28 33 36 39 35 40 36 35 32 29 28 21 23 24 28 31 30 30 31 28 29 30 29 30 32 34
55 55 55 56 57 58 57 55 55 55 54 51 39 25 24 25 27 27 29 32 33 37 35 36 35 32 31 29 14 17 21 21 23 23 29 30 29 30 30 29 30 28 28 32 32
55 55 55 56 56 57 49 41 31 31 36 26 29 22 24 27 27 24 29 31 35 34 27 33 27 22 26 31 26 21 21 21 22 23 23 23 23 25 27 30 32 31 29 29 30
55 55 56 56 56 55 46 38 38 38 33 37 36 35 36 35 30 23 30 25 32 27 31 28 26 24 25 28 29 27 25 24 26 27 25 25 23 24 26 25 26 28 28 28 29
55 55 55 56 55 45 42 43 45 40 29 29 34 34 33 33 30 29 27 29 29 27 29 21 18 30 27 27 26 26 23 22 20 24 25 25 21 23 25 26 27 28 29 28 29
55 55 55 55 40 37 43 49 46 40 23 27 29 29 29 34 31 29 29 29 29 25 27 28 29 27 28 26 26 24 26 24 23 23 19 24 16 20 18 20 26 29 30 31 32
54 54 54 49 33 43 45 49 44 34 12 28 27 30 27 28 28 31 30 33 24 25 29 22 27 29 29 28 28 27 28 27 27 26 25 24 22 16 22 20 21 22 25 29 31
54 54 54 49 43 44 45 44 35 22 18 28 32 31 27 25 25 29 31 33 31 31 29 26 29 28 25 28 30 30 27 28 30 28 24 21 21 17 17 18 20 21 23 25 24
55 54 52 49 43 49 42 34 19 16 31 31 32 32 31 29 25 28 29 26 23 22 22 23 22 27 29 25 28 27 25 21 19 23 20 22 21 18 19 20 20 20 23 27 32
53 54 53 40 47 47 35 24 14 30 30 34 32 32 28 33 31 33 30 28 38 30 24 24 23 24 31 30 29 26 26 21 16 15 17 21 20 18 20 23 28 31 31 32 34
52 47 42 36 44 40 30 25 28 32 32 33 31 29 30 34 31 29 31 34 40 40 36 35 29 33 32 34 29 26 25 26 23 25 22 22 22 23 23 27 27 25 23 25 30
47 44 39 35 42 35 32 30 33 29 24 32 30 32 30 31 29 26 25 41 40 36 41 37 28 34 35 33 30 33 31 26 27 22 19 21 22 23 26 28 27 24 22 21 30
42 35 37 33 40 35 31 32 35 31 23 27 33 29 33 26 26 24 22 30 30 27 35 36 36 26 28 25 28 24 22 20 27 26 24 22 24 29 27 28 20 15 23 25 33
34 23 33 36 32 33 30 31 33 24 26 27 30 27 26 25 21 28 30 29 31 29 27 32 35 24 20 23 24 25 29 22 21 18 22 21 19 24 26 17 16 24 23 26 29
30 27 26 27 6 8 17 18 26 22 28 26 25 28 26 25 15 22 26 32 30 28 25 29 26 18 5 14 19 19 20 19 22 26 19 14 10 13 17 18 22 25 29 29 34
23 1 20 30 29 19 17 18 16 27 29 26 26 29 27 25 25 21 24 27 29 28 32 32 30 25 16 18 26 22 22 23 23 21 20 19 19 20 22 24 32 34 36 34 35
31 31 31 13 24 27 25 23 20 27 29 26 27 30 29 27 27 25 25 24 30 31 30 30 26 24 23 23 24 24 24 23 21 22 21 21 21 23 27 32 30 30 31 32 33
26 24 28 29 29 20 21 22 26 28 27 23 26 29 29 28 26 24 27 28 27 28 28 30 24 25 24 23 21 20 21 22 22 21 20 22 24 30 33 31 29 29 30 32 34
37 37 19 28 26 14 22 27 29 28 26 29 29 29 29 29 30 31 32 31 31 28 26 27 25 23 20 20 20 20 20 14 13 16 18 21 26 32 32 29 27 29 31 32 34

GFSSW_sfc_dewp_021.txt.gz
Dewpoint
56 56 56 56 56 57 57 58 59 60 60 60 60 61 61 62 61 43 22 45 51 63 60 41 39 37 40 41 47 46 32 27 28 29 31 30 34 34 39 40 39 42 41 41 42
58 58 57 57 57 58 59 59 59 59 60 60 61 60 60 62 39 22 49 53 57 63 37 34 33 34 31 32 38 34 28 23 25 32 31 31 30 32 30 32 29 35 38 41 42
58 58 58 58 58 58 59 59 59 59 60 61 61 60 61 58 27 30 56 54 56 55 35 37 35 33 30 34 30 26 26 20 27 25 30 28 26 26 30 33 26 26 30 37 41
55 56 58 58 58 58 59 59 59 59 60 60 60 61 62 45 18 31 56 54 57 42 34 32 32 30 29 26 30 28 21 25 27 27 30 27 26 25 28 29 28 28 34 34 40
56 57 58 58 58 58 59 59 59 59 60 60 60 62 49 26 26 36 51 46 35 34 32 32 26 28 25 23 25 26 24 25 27 28 29 29 28 27 27 25 24 27 29 36 35
58 58 58 58 58 59 59 59 59 59 59 59 60 60 36 16 26 32 30 26 30 32 32 33 32 33 28 27 26 27 29 25 25 24 25 24 26 28 25 25 24 25 26 25 33
57 57 57 58 58 58 59 59 59 59 59 59 59 44 23 27 30 27 29 26 29 30 32 34 35 31 32 27 30 28 25 22 21 19 23 28 26 24 24 25 23 21 18 22 23
57 57 57 57 58 58 58 58 58 58 58 58 59 38 21 30 31 27 26 23 26 29 31 36 37 34 31 30 25 23 21 18 20 25 24 27 19 16 19 22 20 17 13 15 18
56 56 56 56 57 57 58 58 57 57 57 57 41 27 25 38 22 23 26 22 24 29 34 31 34 32 32 28 20 17 15 15 13 20 19 23 23 21 19 18 20 18 17 16 15
56 56 56 56 56 57 57 56 56 56 49 39 30 24 19 20 24 22 22 24 26 28 30 30 28 27 25 21 14 10 8 7 9 10 17 16 17 17 17 18 19 17 17 17 16
56 56 56 56 56 57 52 44 40 36 33 28 24 20 23 26 25 21 22 25 27 27 22 27 21 16 14 18 14 14 13 11 13 16 17 18 20 21 23 23 24 23 20 19 18
56 56 56 56 57 55 50 34 38 39 29 32 31 30 31 31 24 22 25 23 23 22 23 23 24 23 20 21 19 18 18 20 21 20 21 22 23 24 24 26 25 22 19 21 23
56 56 55 56 55 48 40 41 45 40 29 30 31 29 29 30 25 24 24 23 22 22 21 23 24 24 21 21 21 21 21 21 20 23 24 23 21 20 17 22 22 27 30 31 31
56 55 55 54 46 43 43 47 47 41 28 27 26 28 28 29 27 27 26 26 24 23 25 25 24 22 25 23 23 23 25 25 24 24 19 21 17 20 17 19 26 29 29 26 26
55 54 54 48 39 40 43 46 47 42 21 26 29 29 28 26 27 30 28 26 25 23 24 20 22 24 24 22 24 23 26 26 27 25 25 23 20 16 19 21 25 27 25 23 21
56 54 54 45 41 45 47 47 42 29 21 30 32 30 28 29 29 31 29 30 29 27 25 25 26 25 25 26 26 27 28 26 26 27 23 18 18 15 16 21 26 27 27 27 21
55 54 50 43 42 46 47 39 27 20 28 29 30 29 28 29 27 30 32 35 32 29 21 23 23 26 31 28 29 29 23 16 15 25 21 16 15 15 18 27 25 20 20 18 18
54 54 43 35 44 45 41 30 20 27 29 31 28 26 26 29 27 22 24 26 30 29 29 27 21 25 25 26 28 28 24 18 13 10 11 18 16 11 20 23 19 13 9 10 19
52 40 31 29 42 43 34 20 31 29 25 26 25 21 27 29 17 13 29 34 30 26 26 23 21 24 18 28 25 21 19 25 25 21 16 14 12 12 12 15 10 6 7 10 18
44 32 24 27 41 39 27 32 29 21 18 20 21 24 19 21 14 10 9 28 28 26 25 22 11 12 23 17 22 21 12 10 12 6 3 -3 3 6 13 10 8 8 9 12 21
43 30 17 27 38 26 25 32 28 16 21 21 19 12 21 18 9 2 11 27 26 25 23 18 12 12 20 10 9 9 8 12 15 16 12 10 9 9 11 10 12 10 9 13 23
34 16 16 22 19 22 27 22 29 15 15 23 22 21 18 13 5 9 15 24 27 26 16 16 13 4 7 10 9 9 11 17 16 15 15 17 16 11 11 12 11 9 13 20 25
15 13 13 16 2 5 17 18 21 16 21 16 20 18 16 13 6 9 14 30 28 23 18 19 13 12 9 19 19 18 19 14 17 25 21 15 14 15 13 10 9 10 15 21 23
14 13 10 13 13 3 6 7 17 25 20 21 21 20 15 12 14 12 13 17 26 22 28 27 18 14 14 15 17 17 17 16 15 21 15 14 12 12 10 9 10 15 19 22 24
24 21 23 12 8 9 8 7 10 17 19 17 20 18 15 8 10 10 18 16 17 25 24 23 19 18 16 17 17 16 16 15 14 14 14 14 11 11 7 10 15 18 22 23 24
20 19 17 16 12 5 18 11 12 15 13 11 12 21 18 16 15 15 16 17 18 20 21 23 22 22 20 18 17 16 15 15 14 13 11 8 8 8 12 14 20 22 23 22 22
28 26 21 23 9 5 13 16 18 16 19 20 19 19 19 20 23 23 24 24 23 23 24 24 24 23 19 16 15 15 13 11 9 9 10 10 14 14 18 22 23 24 24 24 25

GFSSW_sfc_dewp_024.txt.gz
Dewpoint
56 56 55 55 56 57 57 57 59 60 60 60 61 62 62 62 61 47 34 47 54 66 63 50 44 46 45 50 54 56 43 35 32 34 38 34 30 31 35 39 36 34 43 42 48
58 57 57 57 57 58 59 59 59 59 60 61 61 61 61 62 51 33 53 59 63 65 41 36 38 39 42 45 47 45 42 37 32 33 33 33 30 31 27 31 30 29 34 42 46
58 58 58 58 58 58 59 59 59 59 60 61 62 62 62 59 44 39 60 62 63 58 38 35 36 38 40 45 39 41 38 36 30 32 31 32 30 28 27 30 33 32 28 37 43
56 56 58 58 58 58 58 59 59 59 60 61 62 62 62 48 25 39 61 60 62 49 35 32 35 41 43 35 36 35 32 28 33 32 32 31 30 28 29 30 30 28 29 31 41
58 58 58 58 58 58 59 59 59 59 60 61 61 62 50 38 27 41 59 56 39 33 32 34 31 40 34 30 29 27 28 28 31 32 31 31 31 31 30 30 28 27 28 30 35
58 58 58 58 58 58 59 59 59 60 60 60 60 60 47 24 26 30 28 26 28 31 34 36 34 35 31 30 31 30 30 29 26 26 27 26 29 30 29 28 26 26 27 27 27
57 58 58 58 58 58 58 59 59 59 59 59 60 46 32 28 28 28 28 27 29 30 33 35 36 34 35 33 34 32 26 27 26 23 28 30 27 26 26 26 25 25 21 24 27
57 57 57 57 57 58 58 59 59 59 59 60 60 42 25 30 32 26 25 23 27 31 35 41 39 37 35 34 27 23 25 26 26 28 34 28 27 30 23 22 23 21 18 22 20
56 56 56 56 57 57 58 58 58 59 58 58 44 36 27 41 24 22 27 23 26 30 41 28 38 39 38 34 29 27 19 21 22 23 29 27 24 26 24 20 19 20 18 18 18
56 56 56 56 57 57 58 57 57 56 52 39 31 26 19 21 25 22 26 25 28 30 32 34 35 32 32 28 23 18 14 13 15 17 19 22 22 21 23 23 25 22 21 22 21
56 56 56 56 56 57 53 43 42 38 33 29 25 22 24 24 25 20 22 24 27 29 29 36 29 25 24 25 20 16 14 15 19 23 24 27 25 24 25 26 29 30 28 30 30
56 56 56 56 57 56 51 40 39 41 31 32 30 29 30 30 24 22 25 24 28 26 27 28 29 27 24 24 24 23 22 22 24 26 23 24 24 25 26 30 31 30 28 27 26
56 56 55 56 55 48 42 42 45 41 35 29 31 29 29 31 25 25 24 25 25 25 26 27 27 26 21 25 23 23 23 24 25 26 25 25 25 28 29 31 27 24 23 21 20
55 55 54 54 47 43 42 45 47 44 31 29 29 29 30 29 28 28 27 27 26 25 26 26 26 22 27 23 23 24 26 26 26 25 22 24 21 24 27 28 25 23 23 22 20
54 54 54 52 43 41 44 47 48 44 29 27 29 31 28 27 28 31 30 29 27 25 27 25 25 26 26 23 26 24 29 28 29 27 26 26 25 22 27 27 26 27 24 17 19
56 55 54 47 44 45 47 46 44 33 23 31 31 29 28 29 29 31 31 35 35 32 29 26 27 27 27 29 29 28 29 26 24 24 25 23 24 21 24 25 18 13 11 9 15
55 56 51 42 43 46 47 42 32 26 28 29 30 28 27 28 26 28 30 32 28 26 27 27 25 28 29 25 32 31 26 22 21 26 26 20 19 20 24 16 10 9 9 11 11
54 54 47 36 45 47 43 35 28 27 29 30 27 24 26 27 26 16 27 28 27 24 26 25 23 26 24 25 25 24 25 22 17 16 21 21 18 22 17 11 11 12 13 13 14
52 45 32 30 44 45 39 29 32 28 23 24 25 22 28 27 17 14 29 33 30 25 21 21 22 23 19 26 25 23 21 20 22 21 18 18 17 20 13 11 13 13 13 14 15
47 30 28 28 42 41 35 33 26 20 19 20 23 22 19 19 14 10 14 27 27 25 24 19 12 10 21 22 20 22 20 15 15 9 8 6 7 9 11 12 14 12 11 10 14
45 35 21 28 34 36 30 31 23 14 22 21 19 12 20 16 7 3 14 27 26 25 23 18 15 14 13 15 10 15 11 12 13 11 9 13 13 13 12 14 14 13 10 12 20
39 26 23 21 25 24 28 25 28 14 15 20 21 20 17 12 9 7 14 26 28 25 14 17 17 8 7 12 16 14 9 10 20 17 18 18 15 15 14 15 14 12 10 16 23
24 24 25 20 11 14 19 19 20 16 19 17 19 18 14 13 12 11 14 31 29 22 21 21 14 13 13 20 20 19 19 20 17 24 20 17 16 17 16 14 13 12 14 19 22
26 24 19 16 15 12 10 10 18 22 18 18 19 18 15 11 14 14 13 24 29 23 26 26 19 13 15 17 18 17 17 16 16 18 16 15 14 14 14 14 13 14 17 22 23
28 24 25 16 10 8 9 7 14 17 16 16 19 16 14 9 9 9 16 16 20 29 25 26 20 18 18 18 18 17 17 16 15 15 14 15 14 14 12 10 12 14 21 23 24
28 27 21 16 7 6 19 9 10 11 12 12 11 19 16 15 16 15 17 17 18 22 22 25 22 23 22 20 18 16 17 16 15 15 14 11 10 11 13 12 14 22 23 24 24
28 29 30 21 11 8 15 14 15 12 17 18 17 16 17 21 25 23 23 23 22 22 22 23 25 24 20 17 18 17 16 14 13 13 13 12 15 18 22 26 25 25 25 23 27

GFSSW_sfc_dewp_027.txt.gz
Dewpoint
55 55 55 55 56 57 57 58 59 60 60 60 61 62 63 62 61 53 39 49 57 66 65 51 51 45 45 45 49 45 33 32 28 29 32 32 29 30 29 33 35 36 42 41 49
57 57 57 57 57 58 59 59 59 59 60 61 61 61 61 62 54 44 53 60 64 66 47 39 38 37 37 39 43 39 36 30 31 30 27 30 30 30 25 24 26 29 32 45 49
57 58 58 58 58 58 59 59 59 59 60 61 62 62 62 61 48 43 61 62 62 61 46 38 37 41 36 37 35 34 30 34 32 29 35 30 30 33 27 25 25 29 31 39 47
56 57 57 58 57 58 58 59 59 59 60 61 62 62 62 53 27 43 61 59 61 56 46 35 36 38 34 32 32 29 32 32 33 33 32 30 32 29 28 27 28 29 26 36 42
58 58 58 58 58 58 59 59 59 59 60 61 61 62 52 42 30 43 59 54 52 38 36 36 32 34 32 29 28 26 27 32 32 33 30 29 30 30 29 29 29 28 29 27 30
57 57 58 58 58 58 58 59 59 60 61 60 60 61 49 31 28 39 31 29 32 33 34 35 35 34 30 29 30 29 31 31 30 28 27 26 28 31 28 28 27 27 27 26 27
57 57 57 57 58 58 58 59 59 59 60 59 60 50 39 28 30 28 29 29 32 35 36 37 36 35 34 31 33 28 28 28 28 27 27 29 26 23 24 24 25 23 19 20 22
57 57 57 57 57 58 58 59 59 59 59 60 60 45 26 33 33 29 28 27 29 31 38 39 38 38 35 33 31 23 25 20 23 26 33 23 21 26 26 22 19 18 18 18 33
57 56 56 57 57 57 58 59 59 59 60 60 48 42 29 42 29 25 29 28 28 30 34 30 39 35 32 31 26 25 16 17 16 20 31 26 21 24 24 22 19 19 19 31 31
56 56 56 56 57 58 58 58 58 57 52 45 39 27 24 25 31 27 24 29 32 31 34 37 33 29 29 28 21 15 12 12 13 15 21 24 24 25 25 25 27 29 29 27 27
56 57 57 56 56 57 55 44 43 38 39 32 31 27 27 26 28 26 27 27 31 31 26 32 25 20 22 23 22 20 19 19 22 25 25 24 25 23 29 29 24 21 20 21 23
56 56 56 56 57 56 51 46 41 40 32 36 32 31 33 33 29 25 26 27 28 25 25 25 24 25 29 27 25 23 22 22 25 29 25 25 24 28 23 23 21 20 20 20 23
56 56 56 56 55 48 46 44 46 42 34 33 34 31 33 35 29 27 28 28 25 26 26 24 28 28 26 26 24 24 23 24 25 28 27 25 23 29 25 23 22 21 20 22 24
56 56 55 55 47 46 44 46 47 44 30 31 34 33 33 35 32 32 31 31 28 26 25 25 27 27 28 26 25 22 29 28 28 27 20 25 22 25 24 24 24 18 17 22 25
56 54 54 54 42 43 45 46 45 43 28 33 33 34 30 32 32 35 33 30 29 30 26 23 26 27 27 29 29 25 30 29 29 28 29 26 24 25 26 17 10 9 10 14 24
55 55 54 50 47 45 47 46 44 30 24 34 35 32 31 31 31 36 34 34 35 33 31 27 28 27 28 29 28 30 29 23 24 25 21 22 25 24 22 12 10 11 12 12 14
55 55 53 44 44 45 46 43 30 26 31 31 32 30 28 28 27 28 30 26 25 20 25 27 27 30 24 25 30 25 22 20 16 22 21 21 17 19 10 11 12 12 12 13 14
53 53 47 37 44 45 44 35 28 30 29 33 31 27 29 25 27 21 29 30 28 24 25 20 20 28 18 26 24 24 22 22 17 18 22 20 15 19 11 14 14 13 13 13 14
52 47 37 28 41 43 39 32 30 26 22 24 26 26 30 30 19 18 29 32 27 24 20 23 23 18 26 25 23 22 17 18 17 21 18 21 17 14 14 15 15 14 13 13 13
45 33 23 25 39 41 34 32 20 20 23 25 25 23 21 18 13 5 27 28 28 27 25 18 11 14 24 23 21 19 20 15 14 7 7 9 9 17 12 15 15 14 13 13 17
44 34 22 21 36 36 33 26 21 17 24 23 23 21 21 16 11 5 26 27 28 27 25 16 14 10 9 13 12 12 11 12 12 11 8 9 13 14 15 16 15 14 14 15 21
37 22 19 21 22 26 24 26 30 21 22 22 23 22 16 16 13 11 26 28 30 26 19 19 16 10 6 14 18 14 10 10 13 13 17 16 15 17 17 17 16 15 15 16 24
16 17 19 19 10 19 21 23 24 24 22 22 23 22 17 17 12 14 28 33 29 25 23 22 12 10 6 19 19 17 17 18 18 22 16 13 13 18 17 16 16 15 15 20 23
27 20 22 17 15 15 11 16 21 25 22 19 20 21 18 15 17 17 20 31 30 25 30 25 19 11 9 13 19 18 19 19 17 14 15 15 15 15 16 16 16 14 16 22 24
27 19 24 12 8 9 7 14 18 21 17 16 20 19 16 12 14 16 19 20 29 31 28 25 21 20 20 21 21 20 20 19 18 17 15 15 15 15 15 15 21 24 25 26 25
28 22 20 15 9 8 18 11 15 13 16 15 16 20 17 16 18 17 21 18 18 25 21 22 19 22 21 22 21 20 19 19 19 18 17 16 15 16 20 29 28 27 27 26 25
35 33 25 22 11 12 14 15 18 17 18 21 19 18 20 25 26 25 23 23 22 22 21 22 23 21 16 21 20 17 19 18 17 16 17 13 16 27 28 27 26 26 27 26 26

GFSSW_sfc_dewp_030.txt.gz
Dewpoint
55 55 56 55 56 57 57 58 59 60 60 60 61 61 62 62 61 51 39 48 56 67 64 51 50 48 46 42 48 44 28 30 27 28 26 30 26 30 29 25 26 34 35 42 48
57 56 56 57 57 58 59 59 59 59 59 60 61 61 60 62 53 44 52 60 64 65 43 41 37 38 35 40 43 38 31 23 29 30 25 29 31 29 26 26 24 23 28 45 51
57 57 58 58 58 58 59 59 59 59 60 60 62 62 61 60 45 41 61 62 62 59 47 44 37 41 37 37 37 36 28 31 32 31 35 30 28 33 28 25 24 24 29 29 48
56 57 57 58 58 58 58 59 59 59 60 60 62 62 61 53 24 41 59 60 62 54 43 39 37 36 34 32 34 30 32 33 34 35 33 29 29 28 28 26 28 28 28 29 44
56 58 58 58 58 58 59 59 59 59 60 60 60 61 51 37 29 40 59 53 43 39 37 36 33 34 30 30 27 27 28 30 32 33 31 31 27 29 27 28 29 29 29 28 30
57 57 57 58 58 58 58 58 58 59 60 60 60 60 47 28 29 41 35 29 34 33 36 36 36 36 31 30 30 29 31 31 31 30 28 27 28 28 26 27 24 28 28 33 34
57 57 57 57 57 58 58 58 59 59 59 59 59 52 38 27 31 27 30 29 30 35 36 38 38 32 35 30 33 29 23 24 25 27 28 30 25 26 27 26 20 19 32 32 32
56 56 57 57 57 57 58 58 59 60 59 60 59 45 24 32 32 29 29 28 29 31 37 37 36 38 35 32 30 23 23 20 21 21 29 23 21 23 25 24 22 31 31 30 29
56 56 56 56 57 57 58 58 58 59 59 60 47 39 28 41 27 25 28 29 28 30 33 31 36 35 31 29 24 21 15 17 15 19 26 26 22 26 26 25 27 27 26 26 27
56 56 56 56 56 57 58 57 57 56 53 45 42 24 23 25 29 26 24 29 32 32 33 36 32 28 26 26 16 17 13 12 13 17 26 25 25 25 28 27 24 23 23 25 25
56 56 56 56 56 56 53 44 39 32 36 29 29 27 28 26 27 25 26 27 31 28 26 33 25 20 21 21 21 20 19 20 22 26 26 25 26 23 21 20 21 21 22 24 25
57 56 56 56 56 55 48 42 41 37 30 35 32 32 33 32 26 25 27 26 27 24 26 24 22 26 25 27 27 26 23 22 25 29 25 24 24 23 21 22 21 21 23 24 25
56 56 56 56 55 47 45 45 46 42 30 32 34 31 32 33 29 26 28 29 26 26 27 23 26 28 27 27 24 24 22 24 24 28 26 25 26 23 23 18 15 19 23 25 25
55 55 55 55 47 46 44 46 47 42 30 29 33 32 33 35 31 31 30 30 28 27 26 24 27 27 28 26 26 22 29 29 28 27 20 26 19 25 23 13 11 10 14 23 25
55 54 54 52 41 43 45 47 44 40 26 32 33 33 30 31 33 34 32 31 29 32 27 22 25 26 27 28 30 25 31 29 29 27 27 26 24 27 17 11 11 11 12 13 24
55 55 54 49 46 45 46 46 42 24 20 34 35 32 30 31 30 36 32 31 32 30 30 29 29 28 28 28 30 27 24 22 28 26 20 21 25 24 13 10 12 12 13 12 14
55 54 52 45 43 45 46 41 21 26 32 31 31 30 30 28 25 27 28 25 24 12 21 25 28 28 24 23 27 23 22 16 13 19 16 22 17 17 10 12 13 12 13 13 13
53 53 48 38 44 45 42 30 26 30 28 31 29 28 29 23 23 27 31 30 27 23 23 21 16 20 21 25 21 23 22 16 5 13 18 22 12 10 13 14 14 14 14 14 13
52 46 33 27 41 43 36 31 29 25 23 23 27 25 29 27 16 28 28 30 25 24 18 16 16 17 24 23 20 18 17 22 16 18 16 18 11 11 14 15 16 15 15 17 15
44 29 23 23 41 40 33 30 19 20 24 26 25 22 23 15 11 7 26 28 27 26 24 17 6 13 17 22 17 16 20 17 15 5 5 9 11 14 12 15 17 14 15 16 16
44 23 21 22 38 35 29 25 18 19 25 23 24 20 17 14 11 11 26 27 29 25 20 16 13 6 10 12 11 12 10 13 13 12 6 7 9 14 15 17 15 15 16 17 18
32 7 15 24 20 24 22 24 29 22 24 23 22 19 16 17 11 16 26 28 29 24 19 20 16 11 6 9 16 12 10 11 12 7 16 14 14 17 17 16 16 16 17 17 23
14 15 20 17 9 18 21 22 24 23 21 22 23 22 17 15 10 16 28 33 28 23 17 16 9 5 0 18 18 16 18 18 19 21 15 13 12 16 16 16 17 16 18 21 24
26 16 20 15 16 16 13 18 17 25 21 20 20 21 17 14 15 16 26 32 29 25 31 23 15 3 7 9 19 18 19 20 18 14 14 15 13 14 16 17 17 23 24 25 26
23 19 23 9 8 9 10 18 18 19 17 17 19 19 15 10 13 16 19 22 29 29 28 23 19 20 20 21 22 21 21 20 19 19 16 15 16 17 18 16 23 27 27 27 26
27 17 19 14 9 10 18 11 16 14 14 14 16 19 17 14 15 15 19 16 17 26 25 23 17 22 20 21 21 21 22 22 21 20 18 18 18 19 17 27 28 27 26 23 23
36 34 20 23 10 13 14 14 17 16 18 20 21 18 17 20 25 24 23 22 21 22 21 21 22 20 16 20 20 15 19 20 18 18 18 14 16 19 25 26 23 20 21 21 26

GFSSW_sfc_dewp_036.txt.gz
Dewpoint
55 55 55 56 56 56 57 58 58 58 60 60 60 61 61 62 61 50 36 46 55 66 63 44 41 39 40 42 45 39 25 23 27 29 24 27 26 27 30 25 25 25 25 30 40
56 56 56 57 57 58 58 58 58 59 59 59 60 61 60 61 53 40 53 61 64 63 41 38 35 36 34 38 41 32 18 17 26 28 26 29 28 28 26 24 20 22 31 36 43
58 57 58 58 58 58 58 58 59 58 59 60 61 60 60 60 43 38 60 61 63 56 44 42 40 38 32 37 37 36 24 28 32 33 34 30 28 30 27 26 30 30 33 33 34
56 57 57 58 58 58 58 58 58 58 59 60 60 61 61 51 18 35 58 61 62 47 37 36 33 32 32 30 30 30 33 34 35 35 33 29 29 26 30 32 34 33 33 32 32
56 57 58 58 58 58 58 58 58 59 59 60 59 60 50 28 27 32 57 46 31 35 36 36 32 33 28 29 28 27 28 31 31 31 31 32 27 26 29 32 30 29 29 30 31
55 57 58 58 58 58 58 58 58 59 59 59 59 59 44 23 28 31 29 27 29 34 35 35 34 35 30 29 27 31 30 28 26 25 29 28 27 27 29 30 27 27 27 27 29
56 57 57 57 57 57 57 58 58 58 59 58 59 52 29 25 31 30 28 29 29 33 33 36 36 25 32 26 32 31 21 22 21 21 27 29 24 26 30 28 26 26 26 27 28
57 57 57 57 57 57 57 58 58 59 58 58 58 45 18 27 31 25 26 27 28 30 34 35 35 34 30 31 26 24 21 16 19 26 27 23 22 25 28 25 25 25 25 26 28
56 56 56 56 56 56 57 57 58 58 58 58 44 34 19 38 24 25 26 25 29 31 32 33 35 33 30 25 18 20 18 14 16 27 28 25 24 23 24 23 23 24 25 26 27
56 56 56 56 56 56 57 56 55 56 52 47 40 19 21 23 26 25 23 27 28 31 32 31 29 24 24 19 5 18 21 15 14 22 26 22 20 22 22 22 22 23 24 25 26
57 56 56 55 55 55 51 41 34 30 32 24 27 24 27 29 26 24 27 28 28 26 24 29 24 17 20 22 22 18 18 19 21 26 23 21 20 21 22 22 22 23 23 24 24
57 56 56 55 55 54 48 40 33 30 29 33 31 31 32 31 23 26 28 24 23 21 25 23 20 24 26 26 25 24 22 21 24 28 23 21 20 21 22 23 23 23 23 24 24
56 56 55 54 54 47 44 43 47 39 29 31 33 29 30 30 27 27 27 27 24 24 25 23 25 28 25 26 24 23 21 22 22 28 23 20 20 17 15 16 19 21 23 24 24
55 55 54 55 48 45 42 46 46 39 26 27 31 31 31 32 30 32 33 29 27 26 27 25 26 27 25 24 25 22 26 28 27 26 17 24 16 19 14 10 11 10 11 16 23
54 53 54 52 42 43 44 47 44 33 6 30 31 33 29 30 31 33 33 33 29 30 27 20 24 25 26 26 29 25 28 27 28 25 24 24 24 24 12 10 10 11 13 14 13
55 54 53 47 44 44 45 44 34 17 7 31 33 30 29 29 28 34 27 27 29 26 27 28 30 26 27 28 27 25 23 22 27 25 16 18 22 19 12 10 11 13 14 15 15
54 53 52 45 42 45 44 33 19 12 30 30 30 28 29 25 25 29 27 22 20 20 15 19 26 22 25 21 22 23 11 5 2 13 13 22 21 19 16 12 13 13 14 15 16
53 51 46 38 44 44 37 29 18 26 28 27 27 30 28 22 23 32 32 26 24 21 19 14 14 20 22 22 19 22 18 9 -4 -0 7 20 15 14 12 13 14 15 17 16 17
50 38 24 25 42 41 33 23 21 27 23 23 27 26 28 23 18 27 29 26 24 22 8 8 3 13 17 17 17 17 14 20 13 15 10 12 15 13 13 13 15 17 17 18 19
40 21 21 24 41 36 31 30 20 19 23 24 23 22 26 20 9 19 25 27 26 22 21 14 -6 11 15 19 15 15 17 12 13 2 1 4 6 10 12 13 15 16 17 18 19
38 15 18 26 34 32 28 25 17 22 25 23 22 19 20 15 7 15 20 26 27 21 18 14 4 -1 9 11 11 8 12 15 14 11 6 5 5 10 12 14 16 16 17 18 20
21 12 18 27 24 22 24 22 28 22 23 21 20 19 16 13 8 18 22 26 27 20 13 18 10 2 -1 7 14 13 10 10 13 6 12 12 13 17 15 17 17 17 19 19 23
12 13 22 17 11 19 19 21 22 21 20 22 19 19 16 11 6 19 25 31 26 20 17 14 4 2 -4 10 18 15 17 18 19 19 14 11 7 16 17 17 17 19 20 20 26
22 8 15 17 17 18 15 15 16 23 20 20 17 18 14 11 14 17 24 30 27 25 30 20 9 4 11 8 15 15 16 18 16 14 13 13 8 11 15 15 17 20 20 24 27
23 19 21 8 8 11 15 15 10 11 16 17 16 17 11 8 13 13 25 28 27 29 25 18 14 14 16 15 13 12 11 18 18 16 12 4 10 10 12 16 20 20 25 25 22
19 16 17 14 8 19 20 15 14 16 9 10 13 16 13 6 9 11 18 21 20 25 23 22 15 21 16 20 21 20 20 20 18 17 18 17 17 18 19 20 21 23 24 22 26
35 31 20 21 9 13 12 13 17 14 17 18 14 17 16 16 21 21 20 19 19 25 23 21 21 18 9 18 16 9 10 18 20 21 19 15 16 19 20 22 22 22 25 27 27

GFSSW_sfc_dewp_039.txt.gz
Dewpoint
55 55 55 55 56 56 57 58 58 58 59 60 60 61 61 62 61 50 35 44 56 67 61 44 43 42 43 47 47 39 37 29 27 28 25 29 28 28 29 26 24 30 33 35 40
56 56 56 56 57 58 58 58 58 58 59 59 60 61 60 61 53 39 54 62 63 64 40 39 38 40 40 42 44 37 33 21 25 28 29 31 30 30 28 29 31 31 33 34 37
57 57 57 57 58 58 58 58 58 58 59 60 61 61 61 60 41 37 60 61 64 58 42 40 38 38 37 40 39 36 31 28 31 32 33 31 29 31 29 32 33 32 32 33 34
56 57 57 57 58 58 58 58 58 58 59 60 60 61 61 51 25 34 62 61 60 43 38 38 36 37 36 33 30 30 32 33 35 34 32 30 30 31 32 32 31 31 31 32 33
55 57 58 58 58 58 58 58 58 58 59 60 59 60 51 29 28 31 56 45 31 38 37 38 34 33 31 29 28 27 27 31 32 30 31 30 30 30 29 29 28 29 31 30 31
55 56 57 57 58 58 58 58 58 58 59 59 59 60 44 26 29 30 28 28 30 36 36 37 34 34 32 29 27 30 30 29 26 25 31 30 29 30 29 28 27 28 28 29 31
55 56 57 58 57 57 57 58 58 58 58 58 59 51 32 27 32 31 28 31 30 36 34 38 37 29 32 28 32 30 24 24 24 27 29 29 27 29 28 26 26 25 26 28 29
55 56 57 57 57 57 57 57 58 58 58 59 58 43 24 27 32 25 27 29 29 32 36 41 38 36 30 32 26 23 23 21 21 29 28 26 23 27 26 24 25 25 25 28 27
55 56 57 56 56 56 57 57 58 58 58 59 46 36 27 38 25 26 29 28 33 33 37 33 38 34 32 26 20 23 16 17 19 28 27 26 25 24 24 24 24 24 24 25 25
56 56 56 56 55 56 56 56 55 56 51 48 38 24 24 24 28 27 29 30 30 33 35 34 30 27 26 22 13 15 17 17 18 24 25 24 22 23 23 22 23 23 23 23 24
57 57 56 55 55 55 51 41 33 32 34 26 29 24 26 30 28 27 29 31 32 29 28 30 26 21 22 25 22 20 19 20 22 27 23 22 22 22 22 22 23 23 22 22 22
57 56 56 55 55 54 48 39 33 33 30 34 32 32 32 31 25 29 30 28 27 27 29 26 25 27 26 26 26 23 22 22 24 28 24 21 20 21 21 21 23 22 22 23 23
56 56 56 54 54 48 44 44 47 42 30 32 33 30 32 30 28 29 29 30 27 29 28 26 26 28 27 27 24 24 22 21 22 27 22 20 20 20 19 21 23 23 24 24 25
56 55 54 54 48 46 42 47 47 41 24 28 32 32 31 33 32 33 32 32 30 28 28 26 27 27 28 26 26 24 25 26 26 26 22 23 10 21 14 15 14 15 14 14 17
53 53 54 53 43 43 44 48 45 32 11 30 32 33 31 31 32 35 31 34 31 31 30 26 27 28 29 28 30 26 25 24 27 26 24 24 22 23 15 12 11 12 15 17 18
54 53 52 46 43 45 45 45 33 18 11 32 33 31 30 29 28 32 26 28 30 26 30 28 29 27 27 29 27 25 22 24 27 25 17 18 24 20 12 11 11 13 15 17 17
53 54 51 45 41 45 43 34 21 14 31 30 31 30 28 26 26 30 27 22 22 21 22 21 25 23 27 23 22 23 12 9 8 10 12 23 23 22 17 13 13 14 15 17 19
53 52 44 35 44 45 37 25 15 26 30 28 28 30 28 23 26 32 30 24 23 21 19 15 18 22 20 22 18 22 16 9 1 -2 5 18 15 14 17 14 15 17 18 19 19
49 31 24 25 42 41 29 20 16 29 25 25 27 28 30 23 21 27 29 26 24 21 12 11 8 13 16 17 18 17 15 21 13 13 8 10 12 15 12 14 15 17 19 21 21
33 22 23 24 40 36 28 27 25 20 24 25 26 25 26 26 15 21 25 28 25 22 22 15 3 12 15 19 16 16 19 10 13 0 -1 3 5 8 12 13 15 17 18 20 22
27 20 20 24 34 33 26 27 21 23 26 25 25 22 25 20 13 16 19 27 28 20 20 16 7 7 13 12 13 14 15 15 14 11 5 4 5 9 14 14 15 17 18 20 21
18 17 20 28 26 23 24 23 28 22 23 23 21 22 20 15 12 19 22 27 26 21 14 18 7 1 1 9 13 13 10 15 14 9 12 13 15 15 17 15 17 18 20 22 23
14 16 23 19 14 20 21 21 23 21 21 22 20 20 18 13 11 22 27 31 26 22 18 17 7 6 5 11 18 15 16 16 18 21 18 12 8 16 17 17 18 18 20 22 23
19 9 15 17 17 20 17 17 17 23 21 20 18 18 15 13 16 17 25 29 28 27 27 20 9 8 16 14 15 16 17 18 16 19 14 12 8 10 16 19 19 20 21 22 25
23 20 18 9 10 14 15 13 12 13 17 18 17 17 12 12 15 15 26 28 27 32 26 20 13 13 14 12 11 11 10 18 16 16 13 8 10 11 11 14 16 20 22 23 23
18 16 18 14 9 11 20 16 7 17 13 13 14 17 14 7 10 12 22 24 22 27 25 23 17 21 15 19 20 19 19 19 16 17 17 16 15 16 18 20 19 21 22 23 25
34 28 21 18 10 11 13 14 17 15 18 17 14 17 16 16 19 22 21 20 21 26 24 22 22 18 14 16 15 11 13 14 19 19 17 14 17 19 20 21 22 22 24 26 27

GFSSW_sfc_dewp_042.txt.gz
Dewpoint
55 55 55 55 56 56 57 57 57 58 59 59 60 61 62 62 61 47 28 42 49 66 62 40 39 40 43 47 47 39 36 31 26 23 29 28 23 28 27 24 30 33 35 38 45
56 56 56 56 57 57 58 58 58 58 59 59 60 61 60 62 48 24 51 62 64 66 35 35 34 36 38 41 43 35 34 24 26 30 30 29 27 30 26 28 32 32 34 39 45
57 56 57 57 57 58 58 58 58 58 59 59 61 61 61 58 39 28 62 64 64 57 39 38 36 35 34 39 37 35 30 30 32 34 31 28 29 32 30 34 32 32 33 36 40
56 57 57 57 58 58 58 58 58 58 59 60 60 61 61 50 22 29 62 60 61 38 35 34 33 32 33 29 31 29 32 30 33 30 29 28 30 30 33 33 31 32 32 33 34
55 56 57 58 58 58 58 58 58 59 59 60 59 61 51 28 24 29 57 48 30 35 36 34 28 31 26 28 28 25 28 28 28 31 31 31 31 30 30 29 30 31 32 31 31
55 55 57 58 58 58 58 58 58 59 59 59 59 59 43 19 27 30 28 29 30 35 34 34 32 32 30 28 25 29 27 25 27 30 30 30 31 30 29 28 29 28 29 29 30
54 55 57 57 57 57 57 57 58 59 59 58 59 49 28 25 30 28 27 27 27 30 30 32 30 22 26 26 31 28 19 24 26 28 28 30 29 30 27 27 26 25 24 25 24
54 56 56 56 57 57 57 57 58 58 58 59 59 42 23 26 29 23 26 25 28 31 35 35 34 32 26 31 24 21 22 21 24 27 28 28 22 29 26 25 24 22 22 23 21
55 55 56 57 57 57 56 57 58 58 58 59 44 29 19 39 22 24 24 25 29 31 35 33 35 33 31 22 18 21 8 17 21 27 26 26 26 29 27 25 24 21 21 20 19
55 55 56 57 56 55 56 56 56 56 50 46 37 23 23 19 24 25 25 28 27 31 32 32 30 25 25 19 9 10 12 17 20 25 25 25 26 27 25 24 23 21 20 19 17
56 57 57 56 55 54 50 42 36 32 32 24 24 22 22 27 27 27 28 26 27 27 21 30 22 16 21 23 20 21 21 21 23 27 26 25 25 26 24 23 24 22 18 17 16
57 57 57 55 54 54 48 37 33 37 29 32 30 29 30 28 25 30 28 23 23 21 25 24 19 25 24 24 24 23 22 20 24 27 26 25 25 25 24 23 23 21 18 18 19
57 57 56 54 54 49 44 43 47 41 26 30 31 27 30 27 28 30 28 27 24 24 25 21 26 26 25 25 24 24 21 19 21 27 25 25 24 24 23 22 21 20 20 20 21
57 57 55 54 48 46 42 46 48 41 19 26 29 30 29 31 31 32 29 30 29 25 26 25 26 25 25 23 24 21 24 25 25 24 19 22 6 24 22 21 20 19 19 18 19
55 54 54 53 43 40 45 48 46 39 9 28 29 31 30 29 31 33 29 32 28 28 28 24 25 26 25 24 27 26 26 25 25 22 21 22 18 19 22 19 18 17 16 17 17
53 54 52 46 44 45 46 45 39 21 14 29 30 29 28 28 28 30 25 28 28 28 29 26 29 25 26 28 26 24 22 24 26 23 18 16 19 13 18 17 17 15 15 17 17
54 53 50 45 40 46 45 39 20 16 29 28 28 28 28 26 25 29 25 20 22 21 22 25 25 22 25 23 24 21 18 12 14 19 13 21 21 16 23 17 16 14 15 17 18
53 52 41 34 44 46 40 27 18 23 26 28 28 29 27 24 27 30 27 22 19 17 17 16 19 22 19 22 18 20 18 9 6 4 6 22 16 15 16 18 15 16 17 20 20
52 28 30 26 41 43 33 19 19 25 26 27 26 27 26 20 19 25 26 23 20 17 12 10 10 15 15 18 19 18 15 23 10 12 7 8 10 14 15 15 15 16 19 21 21
32 28 25 24 39 39 28 28 26 20 22 24 27 25 22 26 17 18 20 27 21 18 19 11 1 10 14 16 19 18 19 14 14 5 4 3 7 6 15 15 16 17 19 21 22
28 25 21 28 33 33 24 24 21 21 24 23 26 23 24 25 17 14 16 26 27 17 17 13 6 6 12 15 13 17 15 15 15 12 6 5 6 9 10 13 15 16 18 20 21
30 21 23 28 29 28 27 21 28 20 22 21 22 21 21 17 13 14 16 25 24 18 11 15 8 2 0 10 15 13 9 12 11 11 12 16 14 12 13 14 16 16 18 20 23
21 21 24 22 22 25 22 20 20 18 19 18 19 18 16 14 13 16 24 28 22 19 15 17 10 9 9 17 17 13 14 11 16 20 20 13 11 12 16 16 17 17 17 20 22
20 16 17 20 21 20 19 18 17 20 19 18 16 15 14 12 14 15 22 26 24 24 27 21 13 11 13 15 16 15 17 15 12 21 12 13 10 11 14 15 15 16 19 19 20
27 24 20 13 13 17 14 14 11 12 16 17 15 12 9 8 10 11 22 25 24 32 24 21 14 12 11 12 10 8 9 14 14 11 11 12 10 10 11 14 16 16 19 21 21
23 20 18 14 11 12 20 11 4 11 10 10 9 13 11 6 10 10 19 21 19 28 25 24 18 20 14 17 18 16 16 16 14 13 13 12 14 16 16 17 16 17 20 21 21
32 24 25 18 12 14 15 15 15 15 16 15 12 15 13 14 15 19 20 20 20 23 24 21 21 19 17 12 12 12 13 13 14 16 14 13 16 19 18 19 19 21 22 22 23

GFSSW_sfc_dewp_045.txt.gz
Dewpoint
56 57 57 57 56 56 56 57 58 58 58 59 60 61 62 62 60 49 29 44 48 66 64 39 40 36 41 44 44 40 40 35 29 25 28 24 21 26 25 28 30 32 35 40 46
56 55 56 56 56 57 57 58 58 58 58 59 60 61 61 61 50 24 52 64 65 67 36 34 33 33 37 38 40 37 38 30 27 27 28 27 25 27 25 27 31 31 35 41 45
57 56 56 56 57 58 58 58 58 58 59 59 60 61 61 58 41 24 61 64 64 56 36 35 33 33 34 36 34 33 33 31 31 31 28 24 27 30 29 33 31 31 33 36 40
57 57 58 57 58 58 58 58 58 58 59 60 60 61 61 51 26 28 60 62 62 40 33 31 29 31 32 32 29 32 30 29 32 28 27 26 30 30 34 34 31 32 32 32 33
56 57 57 58 58 58 58 58 58 59 59 60 60 60 53 35 24 27 55 51 31 33 33 32 26 28 29 27 26 25 27 26 28 30 30 30 30 30 30 30 30 31 31 31 30
55 56 57 58 58 58 58 58 58 58 59 60 59 60 49 24 26 27 26 26 31 31 30 30 29 29 26 26 24 26 23 24 28 29 30 30 31 31 29 29 29 29 29 28 27
55 56 57 58 57 58 57 57 58 58 59 59 59 51 35 26 27 24 26 26 29 30 29 29 27 23 24 25 26 22 21 23 25 27 28 30 29 30 29 28 27 26 26 25 24
55 56 56 56 57 57 57 57 58 58 58 59 59 45 25 26 26 22 24 24 28 31 34 34 29 26 24 25 21 19 17 20 25 27 28 28 21 30 27 27 26 24 23 24 20
55 56 56 56 57 57 57 57 57 58 58 59 49 39 20 34 21 22 23 23 27 30 33 31 34 30 28 22 16 20 7 17 25 25 26 26 24 31 28 26 26 24 23 21 20
56 56 56 56 57 56 56 56 56 56 52 44 36 24 20 17 24 25 25 26 25 28 31 31 28 24 21 16 10 13 12 10 16 25 25 25 26 30 28 26 27 24 22 22 19
56 56 57 56 56 56 51 42 39 36 32 26 21 21 20 22 26 26 27 26 26 25 21 26 23 17 14 20 20 16 16 16 19 25 26 23 23 27 27 27 27 24 21 20 18
57 57 57 57 56 55 48 36 37 38 27 30 27 25 26 25 24 28 28 24 23 20 21 22 18 25 23 23 23 21 20 20 21 24 25 23 26 26 27 26 26 25 22 20 19
56 57 57 56 54 48 42 40 45 40 25 28 27 24 26 26 26 29 28 25 23 21 21 20 27 26 24 25 24 24 22 19 18 26 27 27 23 24 27 26 25 24 24 20 21
56 57 57 55 47 41 42 45 46 44 21 25 27 28 28 30 31 32 30 31 26 24 24 23 27 24 25 24 23 22 24 23 24 25 17 23 8 26 24 24 23 23 22 21 22
57 57 56 54 42 37 44 47 45 41 11 26 27 31 29 28 32 33 30 32 28 25 27 25 25 26 26 24 25 25 27 26 27 24 19 18 19 21 24 22 22 21 22 22 21
55 54 54 47 45 44 45 45 41 22 17 28 29 28 27 28 28 30 26 28 29 28 27 26 28 25 26 27 26 27 25 25 24 21 17 15 18 15 20 19 20 20 20 20 18
54 54 51 44 40 46 45 40 22 16 27 27 28 29 27 26 26 27 26 22 22 21 21 23 24 23 25 25 27 25 23 16 20 22 18 18 17 12 21 18 18 19 18 17 18
54 53 46 38 44 46 41 29 19 20 21 30 28 28 26 26 27 28 27 24 18 17 15 15 20 23 22 23 21 20 19 12 11 8 9 20 15 15 17 18 18 18 17 19 20
54 37 36 33 42 43 34 20 22 23 27 28 28 27 26 24 21 24 22 23 20 15 14 10 13 19 18 19 19 20 15 22 11 9 9 8 13 17 15 16 16 16 18 21 22
35 31 31 27 39 40 30 28 24 24 25 27 26 26 24 26 20 20 20 26 21 16 17 12 5 13 17 17 20 18 19 16 16 9 9 5 9 9 15 15 15 16 18 21 24
29 28 24 30 34 33 26 25 23 22 26 25 26 27 23 24 22 19 16 26 26 17 17 13 8 10 11 14 13 17 13 13 15 12 8 8 9 8 11 12 15 15 17 20 21
33 22 25 31 27 28 24 23 27 22 24 23 24 24 22 22 18 19 17 24 25 20 14 14 14 6 4 12 15 15 12 12 13 13 14 16 15 11 12 12 14 12 15 17 20
26 22 24 27 22 20 24 22 21 22 22 21 21 21 19 18 17 15 20 29 24 20 17 18 12 11 11 16 15 9 10 11 11 20 19 15 12 11 13 14 15 18 18 18 18
19 19 18 24 22 18 19 20 20 20 20 17 14 16 16 15 16 15 19 26 24 22 26 22 16 12 13 14 16 14 15 15 12 17 14 14 13 14 15 17 15 16 16 16 19
25 26 22 15 14 18 17 17 13 15 15 16 13 13 9 7 9 8 17 24 23 31 23 21 16 13 13 11 11 10 10 9 13 13 11 12 12 12 14 16 15 15 17 19 20
24 21 19 15 12 12 16 9 7 7 9 10 9 10 7 6 11 10 16 17 16 26 23 23 18 19 14 13 15 13 14 13 13 12 11 12 14 17 18 17 17 17 19 20 20
26 22 29 23 15 17 19 16 13 13 14 13 11 13 11 14 14 17 19 19 19 20 23 20 21 20 19 14 14 14 17 15 15 14 16 16 18 18 19 19 20 21 21 21 22

GFSSW_sfc_dewp_048.txt.gz
Dewpoint
56 57 58 59 59 58 57 57 58 58 58 59 60 60 62 62 60 50 41 45 52 66 64 47 42 46 46 56 56 56 49 41 37 38 34 34 29 28 30 30 32 34 38 44 46
56 55 56 57 57 56 57 58 58 58 58 59 60 61 61 62 52 46 54 65 66 66 40 35 40 39 45 52 50 47 48 40 35 34 34 32 32 31 32 31 32 33 37 42 45
58 56 56 56 57 57 58 58 58 58 58 59 60 62 61 59 49 30 59 61 63 59 39 34 34 38 47 47 45 43 41 37 36 37 32 33 32 33 36 36 33 33 34 37 39
57 57 57 58 58 58 58 58 58 58 59 59 61 61 61 53 30 29 60 60 62 47 34 32 34 43 46 43 41 38 34 36 41 36 33 33 33 32 36 35 33 36 35 33 33
56 57 57 58 58 58 58 58 59 59 59 59 60 60 54 42 26 29 58 53 35 33 31 35 31 43 38 38 35 35 32 29 33 37 34 35 34 32 32 32 31 32 34 31 30
55 56 57 57 58 58 58 58 58 58 59 59 59 60 50 34 26 25 27 28 30 33 32 34 32 31 33 33 32 34 30 28 31 31 33 33 34 34 31 31 30 31 31 28 28
55 56 56 57 58 58 58 58 58 58 58 58 59 52 42 27 26 25 26 29 32 34 36 32 30 29 33 35 36 28 25 27 30 30 31 34 32 31 30 30 29 28 27 27 26
54 55 56 57 57 58 58 58 58 59 58 58 60 49 30 27 29 22 23 25 32 36 39 40 38 37 34 33 27 22 21 27 27 29 32 31 28 33 29 28 28 26 25 26 22
55 55 56 56 57 57 57 57 57 58 58 59 52 45 23 39 22 22 27 24 29 32 42 29 40 39 39 30 24 25 17 21 29 29 30 29 31 33 29 28 28 25 24 23 21
56 56 56 56 57 57 57 57 57 55 53 46 43 29 20 18 25 24 27 29 29 35 35 38 35 31 30 25 20 20 20 16 22 27 27 28 28 32 29 27 28 26 24 22 20
56 56 56 57 56 56 54 47 41 42 38 28 21 22 19 22 27 25 26 25 28 30 29 36 30 26 25 28 25 21 18 18 21 29 32 29 27 27 30 29 29 28 23 22 20
56 57 57 57 56 57 51 38 39 40 27 27 25 24 23 24 23 27 28 25 28 26 27 30 25 29 28 28 27 23 21 21 28 27 28 26 25 28 29 29 30 28 24 22 21
57 57 57 57 57 51 42 41 44 42 29 26 25 23 25 26 25 29 29 29 25 25 23 24 28 26 24 29 24 25 25 24 22 28 28 28 28 29 29 29 28 27 27 23 21
56 57 57 56 48 40 41 43 47 46 26 24 25 27 27 30 31 32 30 32 28 24 28 27 28 25 30 24 24 26 28 26 25 27 24 28 20 24 27 27 26 26 26 24 22
56 57 57 56 48 38 44 47 47 45 18 25 27 30 28 28 33 33 33 33 29 27 34 30 30 31 27 26 27 28 32 29 30 27 24 21 21 23 27 26 24 24 24 25 24
55 56 55 50 48 45 45 47 44 27 20 26 28 26 26 27 28 31 27 33 32 29 29 28 31 29 27 28 28 29 27 29 29 26 21 17 21 23 24 23 24 23 23 24 23
54 54 52 46 42 47 46 43 27 20 27 28 27 28 25 26 25 27 27 25 27 26 25 25 25 25 26 27 31 30 28 23 24 25 22 20 21 18 20 18 20 22 22 22 22
54 54 50 39 44 48 43 34 26 20 26 30 27 27 26 26 27 27 29 27 26 21 21 20 23 25 25 27 25 28 26 21 15 15 14 22 19 17 19 20 19 21 22 21 21
54 44 39 37 44 45 38 27 26 28 27 27 28 26 26 26 24 26 26 25 20 17 20 16 20 21 20 21 24 25 21 26 15 10 11 14 19 18 17 17 17 17 19 22 21
40 34 37 32 42 41 35 30 26 26 26 28 25 27 24 26 22 25 24 27 23 19 20 19 13 18 18 22 23 24 23 20 19 13 12 11 14 18 17 16 17 16 19 23 24
39 32 28 34 35 35 27 26 24 24 29 26 27 27 26 25 25 23 19 27 27 20 21 18 15 16 19 18 21 21 16 17 18 16 11 12 14 11 15 16 17 16 18 21 24
40 26 31 34 30 31 28 25 29 24 25 25 26 26 25 26 24 26 20 27 28 24 21 19 20 13 16 15 17 20 17 16 18 18 22 21 20 12 13 15 15 15 18 20 23
34 30 31 32 25 22 25 23 23 23 24 23 23 24 24 25 26 23 24 32 31 26 24 24 18 16 17 21 20 14 14 15 14 22 23 18 15 13 13 15 16 18 19 20 21
27 25 26 29 29 20 23 21 21 24 22 18 16 19 20 19 23 22 23 28 31 27 25 28 22 18 19 18 22 17 18 16 15 22 16 17 15 16 17 20 18 18 18 19 21
32 34 27 21 20 18 22 21 18 17 17 17 16 15 17 17 16 15 23 26 26 34 29 26 20 19 18 18 16 14 14 14 11 14 14 14 14 14 17 16 16 17 19 20 20
31 29 25 22 14 14 22 13 12 8 11 12 13 12 15 14 16 17 23 22 24 30 27 26 22 22 19 17 17 15 16 16 16 15 14 14 16 20 20 19 18 18 22 22 22
31 31 35 29 21 20 23 16 13 13 14 13 15 18 15 19 18 19 21 21 21 26 27 25 25 24 23 20 20 19 20 20 20 19 18 16 21 23 22 22 22 24 24 22 22

GFSSW_sfc_dewp_051.txt.gz
Dewpoint
56 57 59 60 61 61 59 58 58 59 59 59 59 61 61 62 61 54 46 50 55 67 65 53 49 43 47 47 49 44 41 32 32 35 28 29 29 28 32 31 34 37 40 43 45
57 56 56 57 58 59 59 58 58 59 59 59 60 61 61 62 55 48 54 62 63 64 44 38 36 36 39 44 45 39 36 35 35 34 31 33 31 33 30 32 32 34 37 41 41
57 56 56 56 57 58 59 59 58 59 58 59 61 62 61 61 51 37 60 59 62 60 46 41 35 41 41 41 38 39 34 33 39 36 31 33 32 35 34 33 33 32 35 37 36
57 57 57 57 58 58 58 59 59 59 59 59 61 61 61 56 32 31 56 61 63 54 41 35 36 38 39 37 35 31 32 37 39 36 34 33 33 32 34 35 33 32 32 32 31
56 57 57 58 58 58 58 59 59 59 59 59 60 61 56 48 35 32 58 57 47 44 35 36 33 34 36 31 31 31 30 31 32 33 33 33 34 31 31 32 31 32 31 30 28
55 56 56 57 58 58 58 58 58 58 59 59 59 60 53 40 27 25 35 32 34 42 35 32 32 31 32 30 29 31 30 30 32 31 34 33 33 33 31 31 30 31 28 26 26
55 55 56 57 58 58 58 58 58 58 59 59 59 51 49 39 26 24 29 29 35 40 42 35 33 28 30 30 33 25 23 30 29 30 31 33 33 30 31 30 29 29 26 25 24
54 55 56 57 57 57 58 58 59 59 58 59 60 51 44 31 28 27 27 31 33 37 41 39 37 37 32 28 26 22 20 22 25 30 32 27 22 33 30 29 28 27 25 24 22
54 55 56 57 58 57 58 58 58 58 58 59 51 49 28 39 26 26 28 31 33 34 39 29 41 36 29 24 22 23 14 18 27 30 30 26 26 31 29 28 28 25 24 22 20
54 55 57 57 57 57 57 57 56 57 56 47 46 41 28 23 29 29 28 33 33 34 37 38 32 26 28 24 15 18 16 16 23 27 29 28 26 30 28 27 28 24 24 22 20
56 57 57 57 57 57 55 48 43 43 45 35 31 24 21 26 29 28 30 32 32 30 27 33 26 22 21 24 22 21 19 18 21 29 25 25 26 28 29 27 27 26 24 22 20
56 57 57 57 57 56 51 47 41 37 29 31 29 27 26 26 26 29 31 28 29 25 28 24 20 25 28 28 27 25 23 21 27 30 25 25 25 26 29 27 27 28 24 22 21
56 57 58 58 56 51 46 43 45 43 29 32 31 27 30 29 32 31 32 30 26 26 23 20 30 29 28 28 26 25 25 24 22 29 27 26 26 26 30 29 28 29 26 23 21
57 58 58 57 46 47 42 45 46 45 24 28 30 31 29 35 35 34 32 35 30 25 29 26 29 28 28 26 26 24 31 30 28 25 21 24 20 22 27 27 27 27 25 24 21
56 57 57 54 51 44 45 45 44 43 21 28 31 33 29 32 34 37 36 34 32 30 25 21 27 29 29 29 28 28 33 30 30 26 23 23 21 20 26 25 25 25 25 25 22
55 56 55 50 50 48 45 45 43 26 23 30 31 29 27 30 30 36 33 32 32 30 29 29 30 28 29 30 29 30 28 27 28 25 20 19 19 19 24 24 25 24 25 25 24
54 55 53 49 44 45 45 43 24 22 30 29 29 29 28 27 28 29 29 26 24 23 23 26 28 26 27 27 30 28 24 21 20 22 19 20 18 18 23 21 24 24 23 24 23
53 54 52 45 42 45 43 34 28 27 29 32 31 30 28 29 29 30 29 26 19 19 19 21 22 25 26 26 24 27 24 20 12 17 12 20 15 15 19 18 18 24 23 23 23
53 46 45 38 41 42 38 28 27 30 30 30 30 28 27 27 26 27 27 23 19 17 16 12 21 23 20 21 22 23 16 20 12 12 9 13 19 18 16 16 16 19 20 21 20
41 39 37 34 39 41 35 32 25 29 29 31 29 28 26 25 22 23 24 27 23 21 19 15 7 19 21 21 23 20 22 16 18 9 9 11 13 14 14 14 15 17 18 20 22
39 32 30 31 36 36 29 26 27 27 31 28 28 29 26 25 23 21 25 27 28 23 19 15 10 12 14 17 19 18 13 15 15 16 11 9 11 12 17 16 15 16 17 21 23
39 25 28 34 30 32 28 26 31 29 29 28 27 27 25 24 22 21 25 28 28 26 20 18 16 11 11 14 17 17 15 15 18 12 17 19 17 13 14 14 15 16 18 21 23
36 27 28 32 26 24 24 24 26 28 26 27 27 26 22 22 20 21 31 32 28 27 25 23 12 11 12 19 19 8 11 14 15 22 14 14 11 12 14 14 17 17 18 20 20
29 21 26 29 28 26 22 22 23 25 26 20 18 20 19 18 19 20 28 31 30 32 26 26 19 16 17 14 19 13 16 15 12 18 14 17 15 16 17 17 16 17 18 19 20
31 28 25 21 21 18 18 21 20 19 19 19 16 18 16 14 16 14 28 27 27 34 27 23 18 19 19 20 19 17 16 16 12 14 13 13 14 15 16 16 16 17 22 21 21
28 26 22 16 12 13 21 13 14 13 15 16 16 17 10 12 15 17 20 22 24 30 26 23 17 20 18 18 17 15 18 18 18 17 16 15 15 19 21 20 20 21 23 23 22
30 29 33 26 16 19 18 15 17 14 16 16 16 14 15 21 19 18 18 19 23 26 26 24 22 21 18 24 21 17 20 20 18 18 18 15 18 22 21 23 22 22 23 24 23

GFSSW_sfc_dewp_054.txt.gz
Dewpoint
58 58 59 60 61 61 61 59 58 59 59 59 59 60 61 62 60 54 45 53 54 66 65 50 48 45 46 46 48 47 34 30 31 29 28 32 27 32 34 33 36 39 40 43 45
58 57 57 58 58 59 59 58 58 59 59 59 59 60 61 62 56 49 58 60 64 64 43 40 37 37 37 43 44 40 34 29 34 33 28 35 30 30 31 32 33 36 38 39 39
58 57 57 56 56 57 58 58 58 59 59 59 60 61 61 59 52 46 60 61 64 61 46 44 39 40 43 40 38 38 33 32 37 32 32 32 32 37 32 33 32 34 36 35 35
58 58 57 57 58 58 58 59 59 59 59 59 60 61 61 55 34 32 58 62 65 56 41 38 36 39 38 34 35 30 36 36 37 35 31 29 32 32 35 34 33 32 34 32 32
57 57 57 57 58 58 59 59 59 59 59 59 59 60 53 48 46 30 60 59 49 44 39 37 32 34 32 31 31 31 31 34 33 34 33 33 34 31 31 33 32 31 31 29 28
55 56 56 57 57 58 58 58 58 58 58 59 59 60 50 42 29 30 30 33 39 47 38 36 30 30 29 30 30 32 31 31 33 32 34 32 33 33 31 31 31 29 28 27 25
54 55 56 57 57 58 58 58 58 58 58 58 58 55 49 42 27 24 29 29 36 41 44 38 36 31 31 30 31 28 26 28 30 30 32 32 30 30 31 30 30 28 25 23 23
53 55 55 57 57 58 58 58 58 58 58 58 59 53 43 37 28 26 30 31 35 39 41 42 39 36 31 31 22 21 22 22 24 31 32 27 24 29 31 29 29 28 25 23 20
53 54 55 56 57 57 58 58 58 57 58 58 55 48 38 39 26 24 31 30 33 34 38 30 39 34 27 22 20 22 12 18 20 31 31 26 25 32 30 29 28 27 25 23 20
54 54 55 57 57 57 57 57 56 56 55 51 49 40 35 24 28 27 27 31 32 33 35 35 32 27 27 21 9 14 17 16 20 27 30 28 25 30 29 29 28 27 24 22 19
54 55 57 57 57 57 54 47 44 44 46 36 36 31 24 27 30 28 30 31 31 26 27 33 23 16 16 24 21 20 18 17 19 28 28 28 28 28 30 28 28 26 24 22 19
55 56 57 57 57 57 52 46 40 34 31 37 31 28 26 27 27 30 32 27 27 23 27 23 20 20 27 27 25 24 20 20 26 30 24 25 25 27 30 28 27 27 25 23 20
56 57 58 58 57 52 46 46 45 43 25 30 32 26 28 30 32 30 32 32 25 25 23 19 27 28 26 27 26 26 23 24 22 27 26 26 25 26 30 30 28 28 25 24 21
57 58 57 57 47 44 39 42 45 43 22 26 29 30 28 35 33 34 32 34 30 22 27 24 28 27 27 25 25 23 29 29 29 25 19 24 17 23 25 27 27 27 26 23 21
57 57 57 55 51 46 44 45 44 38 17 27 30 33 29 32 33 35 35 33 30 30 24 22 26 28 28 27 29 25 32 29 29 25 25 22 20 19 27 25 26 27 27 26 22
56 56 56 52 49 47 48 45 40 20 21 29 31 29 27 30 33 36 31 30 31 27 27 26 30 28 28 29 29 31 26 28 28 24 19 19 16 13 24 25 26 26 26 26 24
55 56 53 49 43 45 45 40 13 22 30 28 27 29 28 27 29 31 28 24 23 21 22 27 27 26 27 25 29 26 21 15 17 21 19 21 17 13 20 19 24 26 25 26 24
53 54 52 47 45 43 41 31 26 27 29 33 31 29 26 28 28 29 28 24 18 20 19 22 22 25 25 24 24 26 22 18 13 18 17 15 17 16 17 17 20 24 25 25 24
52 45 44 41 46 43 35 26 26 29 30 29 30 27 27 27 28 27 26 22 18 17 17 13 19 22 21 21 23 22 18 20 14 13 10 11 16 17 16 15 18 21 23 24 24
40 40 38 36 41 40 32 31 25 29 30 31 27 28 26 25 22 23 24 27 23 20 19 13 6 20 21 20 22 20 21 15 17 3 9 11 10 13 14 14 16 18 20 21 22
36 32 34 35 37 35 23 27 26 28 30 28 28 28 26 23 22 22 24 27 28 22 18 15 9 10 13 16 17 17 14 16 16 17 11 8 7 14 15 15 15 15 17 19 21
38 24 29 35 29 31 29 25 33 28 28 27 27 27 25 24 20 21 25 28 28 26 19 17 14 11 10 13 16 18 11 14 16 11 14 17 18 16 14 16 15 15 18 20 23
35 26 27 33 25 23 24 24 26 27 26 25 26 25 22 21 18 25 29 31 28 27 22 19 9 7 10 18 20 6 8 13 20 20 12 12 9 13 14 15 17 17 19 19 21
27 21 26 28 27 22 22 22 22 25 25 18 19 19 18 17 18 22 27 29 29 31 27 25 17 13 14 16 17 14 15 13 13 16 11 14 12 16 16 16 15 16 17 18 19
29 26 24 18 18 21 21 22 20 16 19 18 15 18 15 15 15 20 28 26 26 32 26 21 11 18 18 19 20 17 16 17 13 13 12 13 14 15 16 16 17 19 23 22 22
28 24 21 16 14 14 22 18 15 16 14 14 15 16 9 12 13 14 24 24 22 28 24 22 13 20 17 23 23 18 20 21 19 17 15 16 15 20 21 22 22 22 22 23 24
32 29 25 27 14 16 14 11 14 14 16 16 15 13 15 17 17 18 19 20 26 25 25 22 21 20 16 22 21 13 19 19 19 18 17 15 20 24 24 24 23 23 24 24 24

GFSSW_sfc_dewp_057.txt.gz
Dewpoint
58 58 59 60 61 62 62 61 60 59 59 59 59 60 61 62 61 52 41 50 53 65 64 49 46 39 45 45 47 46 34 30 30 29 27 27 27 33 35 35 37 39 40 43 46
58 58 58 58 59 59 59 58 58 59 59 59 59 60 60 61 55 50 54 60 63 65 43 39 37 37 37 42 42 40 33 29 31 31 25 31 30 31 32 34 35 37 38 39 42
58 58 57 57 57 57 58 58 58 59 59 59 59 60 60 61 50 42 64 63 64 63 45 44 39 36 37 39 37 38 36 33 35 32 33 31 31 36 31 31 34 37 37 35 37
58 58 58 57 57 58 58 59 59 59 59 59 60 60 61 56 25 32 61 63 63 58 44 40 37 33 38 35 36 31 34 34 38 36 30 31 32 33 34 33 33 37 35 33 34
57 57 58 58 58 58 59 59 59 59 59 59 59 59 54 48 45 37 61 59 53 48 43 41 31 34 36 34 32 31 32 34 33 33 34 33 33 30 32 33 32 33 31 31 30
55 56 56 57 57 58 58 59 58 58 58 58 59 59 51 39 37 30 33 32 41 47 43 38 32 29 29 31 30 32 30 30 33 32 33 31 33 32 31 32 30 30 29 27 28
55 55 56 57 57 58 58 58 58 58 58 58 58 55 49 41 30 25 28 29 39 45 41 41 37 28 28 31 30 29 27 26 29 30 30 31 27 29 31 31 30 27 26 25 24
54 54 55 56 57 57 58 58 58 58 58 58 59 53 45 45 29 26 29 30 35 44 45 45 37 34 34 29 23 20 21 18 22 31 31 25 21 27 31 30 30 26 24 22 21
52 54 54 55 56 57 58 58 58 58 57 57 53 50 39 39 25 28 29 30 34 34 39 40 40 36 29 22 18 20 12 18 18 30 31 26 23 29 31 29 29 29 25 22 20
53 54 54 54 56 57 57 57 57 56 54 52 50 43 38 25 30 30 28 31 31 31 34 33 30 27 26 14 10 11 16 16 17 25 30 28 26 27 30 29 29 29 26 24 20
54 53 54 54 57 57 55 47 42 45 45 39 37 32 31 35 29 32 32 29 30 26 26 32 22 13 18 21 17 18 17 16 18 25 28 28 28 28 29 29 29 28 26 24 21
55 55 56 57 57 57 52 45 42 36 32 42 41 36 36 29 33 30 32 26 27 21 26 24 20 19 23 27 25 23 20 18 22 29 27 26 26 27 28 29 29 29 27 24 21
55 56 56 56 57 53 46 45 47 43 25 32 37 35 33 28 32 32 32 28 23 23 22 19 24 27 25 26 24 25 21 22 22 26 25 25 24 25 28 30 29 29 27 25 21
56 57 57 57 49 45 43 40 45 42 20 28 32 33 32 36 33 34 32 31 29 21 25 23 26 26 26 24 23 21 28 28 28 24 20 25 19 22 24 27 28 27 26 25 22
57 57 57 55 49 48 45 47 44 35 15 26 35 32 30 29 33 35 34 32 28 29 24 22 26 27 27 26 28 25 30 28 28 24 25 21 18 17 25 24 26 27 27 25 23
57 56 56 55 50 48 46 45 36 18 19 27 30 28 26 30 32 34 28 29 31 26 26 26 29 27 28 28 28 30 24 25 28 24 18 18 15 15 22 23 24 27 27 27 24
56 55 55 48 45 44 45 36 13 23 30 27 26 29 26 27 28 30 26 22 22 18 23 25 27 25 27 26 28 24 17 15 13 19 14 21 17 16 18 18 20 22 27 27 26
54 55 53 49 46 45 39 31 24 26 28 32 29 28 25 27 28 29 27 21 18 21 20 19 19 24 23 23 22 24 18 15 9 16 20 18 17 17 17 16 20 24 26 26 26
53 47 46 44 47 43 33 25 24 28 29 29 29 26 27 26 27 27 25 25 18 17 19 15 16 21 20 21 23 22 21 21 15 13 10 12 12 17 15 15 19 21 24 26 26
40 39 39 38 42 38 32 31 25 28 30 30 26 27 25 25 24 24 24 26 22 19 18 12 9 19 20 20 22 20 20 15 15 4 6 11 9 15 13 13 15 18 20 23 24
36 32 34 36 37 32 23 26 26 27 30 28 28 27 27 24 22 22 23 27 27 21 17 12 9 9 13 15 14 18 16 16 16 16 11 8 6 14 14 15 15 15 16 19 20
36 25 29 35 28 30 28 25 33 27 27 27 27 26 25 23 20 22 24 27 28 25 16 16 11 8 8 13 17 18 13 14 11 7 14 15 18 19 13 15 15 15 18 20 21
35 26 28 33 24 25 24 24 26 26 24 25 24 25 22 20 18 26 27 30 28 26 18 15 6 3 7 16 19 8 11 17 20 19 14 12 11 13 17 16 16 17 17 19 20
26 20 26 29 27 25 22 21 21 24 24 17 20 19 18 17 19 25 24 28 28 29 30 21 15 9 10 16 18 14 14 13 13 15 9 12 10 14 16 17 17 21 22 22 23
28 24 26 20 23 21 23 22 19 19 19 17 14 17 16 14 14 22 27 24 25 32 25 18 5 17 17 18 19 18 17 16 13 13 11 12 14 15 17 18 20 22 23 23 24
28 24 21 17 16 18 28 20 18 16 16 15 14 15 9 13 12 15 24 22 20 27 22 21 12 19 15 23 22 21 20 20 20 17 15 14 15 22 23 23 23 23 23 23 23
31 30 23 26 15 14 14 16 16 14 15 17 15 13 13 17 18 19 22 25 25 23 23 21 21 19 17 20 21 15 18 19 19 18 17 14 18 24 24 24 24 24 23 23 24

GFSSW_sfc_dewp_060.txt.gz
Dewpoint
59 59 59 59 60 61 62 61 61 60 59 59 59 60 60 61 60 50 40 39 55 62 64 47 45 41 44 45 47 43 34 29 29 27 26 27 28 34 36 35 38 39 41 44 46
58 59 58 58 59 59 59 59 59 59 59 59 59 60 60 61 55 50 50 62 62 64 49 42 36 38 38 42 41 38 34 30 33 31 26 29 29 31 32 36 38 38 39 43 39
57 58 58 58 58 57 58 58 58 59 59 59 59 60 60 60 50 36 62 65 63 61 56 50 42 37 37 39 38 39 35 33 35 33 32 31 32 35 31 31 37 39 39 39 34
56 58 58 58 57 58 58 59 59 59 59 59 59 59 61 55 29 32 66 65 61 58 50 49 45 38 38 33 35 32 34 34 37 34 32 30 33 33 32 32 33 39 36 36 29
55 57 57 57 58 58 58 59 59 59 59 59 59 59 53 48 45 46 62 60 53 46 43 47 40 38 33 34 32 31 34 32 34 33 33 32 32 29 32 33 35 34 33 34 29
55 56 56 57 57 58 58 58 59 58 58 58 58 59 50 43 38 32 32 35 40 44 44 43 38 34 30 27 30 32 31 29 32 33 33 30 32 32 30 32 32 31 31 31 28
55 56 56 56 57 58 58 58 58 58 58 58 58 55 50 46 39 24 28 28 38 43 41 47 43 39 30 28 31 27 28 26 29 30 30 30 24 28 30 31 30 29 28 28 27
54 54 54 55 56 57 58 58 58 58 58 58 58 52 47 46 41 26 28 29 41 45 44 50 42 33 33 25 23 20 20 20 22 30 32 25 19 26 31 30 29 27 26 24 24
52 52 53 55 55 55 57 57 57 57 57 57 53 49 42 44 25 25 28 28 33 38 41 39 41 33 26 22 18 19 18 17 17 30 31 25 20 28 31 30 30 27 24 23 21
52 53 53 54 55 56 57 57 57 56 53 53 49 44 39 22 28 28 31 30 29 33 35 33 30 31 24 17 19 15 14 15 14 24 30 27 26 27 30 29 29 29 25 23 20
53 53 54 54 55 57 55 46 40 43 47 40 41 38 30 35 32 31 37 31 30 27 22 29 17 21 35 27 15 14 17 16 17 24 27 26 27 27 29 30 29 29 28 25 21
52 54 54 55 56 57 51 43 39 39 36 41 42 41 38 37 29 32 34 27 28 22 26 24 16 17 20 24 24 22 19 18 21 29 27 26 26 27 29 29 30 29 29 27 23
55 55 56 56 57 52 48 42 48 40 31 35 40 31 33 35 34 30 35 31 26 23 24 21 23 25 24 24 22 23 20 20 21 26 26 25 24 23 26 29 29 30 29 27 24
56 56 56 57 49 46 46 43 44 41 24 26 30 33 33 38 35 34 32 30 28 21 21 23 26 25 25 23 23 21 27 27 27 24 19 24 16 19 24 26 27 28 28 26 24
56 57 57 54 46 49 47 46 45 35 19 29 32 32 34 31 31 34 34 31 28 28 24 20 26 26 25 26 27 25 29 27 27 23 21 21 18 15 22 23 23 27 27 27 25
57 57 57 55 52 48 47 45 36 24 16 28 31 31 30 31 34 33 28 29 30 26 26 27 29 26 27 28 29 28 22 24 28 24 15 18 14 14 18 23 21 22 27 27 26
56 56 55 47 47 45 44 32 20 23 29 26 27 28 26 29 28 29 24 20 21 12 21 23 26 25 27 25 28 22 21 18 9 17 11 21 17 17 18 17 17 18 21 27 27
55 55 54 52 47 46 39 29 22 26 27 31 29 27 24 27 27 28 25 21 18 21 20 19 17 24 22 22 20 23 20 15 6 13 18 20 17 17 17 16 20 24 26 27 27
54 48 47 44 46 44 32 22 25 28 28 29 28 24 26 26 27 27 25 25 18 17 18 17 16 21 20 21 23 23 22 21 15 12 10 13 10 16 15 14 17 21 24 26 26
41 39 39 37 43 37 30 30 25 27 29 30 25 27 25 25 25 25 24 26 22 18 17 13 12 17 19 20 21 20 20 15 15 5 2 9 10 14 13 14 15 16 17 20 21
35 32 34 34 37 32 21 26 26 27 29 27 28 27 27 25 23 22 23 26 26 20 16 11 10 8 13 14 15 18 17 16 15 15 11 7 5 12 14 15 14 16 19 21 22
34 28 30 34 28 29 28 27 32 26 27 26 27 26 26 23 22 21 23 25 27 24 13 15 10 7 7 13 17 18 17 14 15 6 13 14 16 18 14 14 17 17 19 20 22
34 26 28 32 22 25 24 24 25 26 23 24 24 24 22 20 21 26 26 28 27 24 17 14 6 2 3 14 18 9 13 18 18 19 15 12 11 13 16 15 17 17 20 22 24
26 21 26 29 27 25 21 21 21 23 23 17 19 18 18 17 23 25 22 27 28 28 33 20 13 6 9 14 17 13 12 16 13 14 9 12 9 12 16 16 20 22 23 23 24
28 23 26 22 25 26 25 21 19 19 19 15 14 16 16 14 14 23 25 22 25 32 24 14 3 14 16 17 18 18 16 14 12 11 11 13 13 16 17 20 21 22 23 23 24
28 24 21 18 20 18 28 20 18 15 17 16 13 15 10 13 11 16 23 19 17 25 20 20 11 20 14 22 21 20 21 19 18 17 14 15 14 21 22 27 23 23 23 23 24
32 31 22 25 16 17 16 18 19 14 16 19 15 13 14 17 19 22 25 25 24 22 21 20 20 19 19 19 19 16 18 20 19 19 17 14 17 23 23 24 25 25 25 23 24

GFSSW_sfc_dewp_063.txt.gz
Dewpoint
57 59 59 59 59 60 61 61 61 60 59 59 59 60 60 61 60 48 40 44 53 61 62 46 46 42 43 48 48 44 42 36 35 30 31 29 29 33 35 36 38 40 43 47 45
55 57 59 59 59 59 59 59 59 59 59 59 59 60 60 61 55 47 48 59 66 59 41 42 39 41 42 43 44 43 43 39 36 34 31 30 29 33 34 37 39 40 43 44 41
54 56 58 58 58 58 58 58 58 59 59 59 60 60 60 59 47 37 59 61 66 58 50 49 44 38 40 42 39 41 42 37 35 34 32 32 32 33 34 34 39 41 45 40 38
54 55 58 58 58 58 58 59 59 59 59 59 59 59 60 54 31 35 65 66 66 55 48 49 46 42 43 38 34 34 34 35 36 36 33 32 34 32 33 32 34 43 43 37 38
54 56 57 57 58 58 58 59 59 58 59 59 59 59 53 47 41 42 64 65 57 48 44 47 44 45 40 34 33 32 34 33 34 34 33 34 31 30 33 33 39 41 40 34 34
55 55 56 57 57 58 58 58 58 58 58 58 58 58 50 37 41 34 39 46 42 44 44 47 42 42 38 34 35 33 32 31 31 33 33 30 31 32 31 35 36 38 39 31 30
55 54 56 56 56 57 57 58 58 58 58 58 58 56 51 40 47 37 28 29 38 43 42 44 47 41 41 36 35 30 29 28 29 30 30 31 26 30 31 34 34 34 35 32 28
54 54 54 55 56 56 56 57 57 58 58 58 58 55 40 46 48 41 26 32 43 45 44 46 50 43 38 36 25 26 25 29 24 30 32 26 26 24 32 31 33 32 31 32 26
54 53 54 53 56 54 55 55 57 57 57 57 55 50 41 47 30 27 29 29 35 41 43 43 45 38 36 27 27 23 27 23 24 29 30 26 25 27 32 31 31 31 29 28 27
54 53 52 53 54 54 56 57 57 56 53 53 51 45 40 25 29 28 34 32 32 41 37 34 36 29 26 28 29 27 18 16 21 25 29 28 29 29 31 31 32 30 28 26 25
54 54 54 53 53 54 55 46 38 43 48 37 41 42 33 32 34 32 38 32 32 33 29 31 26 27 30 31 21 21 19 18 18 23 26 27 28 29 30 32 32 32 29 26 23
53 54 55 55 54 56 52 41 38 42 39 43 42 41 43 40 31 32 35 27 30 27 33 31 24 30 33 31 30 24 19 19 23 28 28 28 27 29 30 31 32 31 30 28 25
53 54 55 55 55 54 49 41 46 41 39 36 42 38 35 39 34 31 34 31 27 30 29 23 28 27 27 26 23 26 22 22 21 26 26 27 27 25 25 29 30 31 32 31 27
54 56 56 56 52 47 45 45 47 42 29 28 33 36 37 42 34 35 38 33 31 27 25 25 28 26 26 25 25 24 29 27 27 25 20 25 18 23 20 26 25 28 30 30 29
56 56 57 56 46 49 48 46 46 41 22 30 35 35 40 33 34 32 36 35 30 28 26 25 29 28 28 27 28 26 31 28 26 24 22 22 19 18 24 25 23 22 28 29 29
56 57 57 55 54 51 49 45 44 31 22 31 36 33 33 35 35 34 32 30 32 27 28 29 30 28 29 28 30 30 23 26 29 25 18 18 17 14 19 19 20 19 23 29 28
57 57 56 50 47 47 44 39 29 27 30 27 29 28 30 34 33 30 24 21 23 20 24 24 27 26 29 27 29 25 27 22 14 17 13 21 18 18 20 18 17 21 25 28 28
56 56 54 53 49 50 41 31 25 28 28 32 31 29 25 29 29 30 28 21 21 22 22 17 16 26 24 26 25 24 26 20 8 10 17 21 19 18 18 17 22 26 28 29 28
54 49 49 46 47 47 32 20 25 30 29 32 28 24 28 28 28 28 27 24 21 22 19 19 21 23 20 23 25 24 23 22 17 13 11 14 12 17 16 16 17 19 22 24 25
44 39 40 36 45 38 29 30 27 28 30 31 25 27 26 27 27 27 27 27 22 20 23 18 15 18 21 24 23 25 22 18 18 9 3 8 11 15 15 16 17 19 21 24 25
36 33 35 33 36 33 21 25 28 27 29 29 29 28 28 26 26 25 24 28 26 21 20 17 17 16 20 20 20 21 19 18 18 14 10 8 8 13 16 16 16 18 21 23 25
34 29 31 35 28 29 27 29 31 26 27 28 28 28 28 25 24 24 25 26 26 26 16 19 15 10 13 16 19 21 18 17 18 11 14 14 16 17 16 16 18 19 22 24 26
33 30 29 33 21 23 26 24 25 26 23 25 25 25 23 22 23 27 27 30 30 26 20 17 11 6 9 17 20 15 15 18 19 20 17 14 12 14 18 17 19 23 24 25 26
27 22 26 29 27 26 23 22 22 24 23 20 20 21 20 19 26 26 23 28 30 31 32 22 14 10 12 17 20 15 13 18 16 17 13 15 13 13 17 19 22 23 24 24 26
28 23 25 24 27 25 24 23 20 20 20 16 17 19 19 17 19 24 26 23 27 32 24 17 9 16 17 18 19 18 16 15 14 13 12 14 13 15 18 22 22 23 24 24 25
28 26 22 18 21 22 27 21 19 16 18 19 14 15 14 15 17 20 23 20 17 26 22 22 17 20 17 21 21 21 22 20 18 16 14 15 16 18 22 23 23 24 25 25 25
33 31 24 23 19 19 19 20 21 14 17 19 16 15 17 20 21 25 25 25 24 22 22 21 22 22 22 19 19 18 19 22 21 20 19 17 21 24 24 25 25 27 27 26 26

GFSSW_sfc_dewp_066.txt.gz
Dewpoint
55 55 58 59 59 59 60 60 60 60 60 59 60 60 60 61 60 43 35 43 49 61 62 41 42 40 44 49 49 46 42 39 39 36 34 29 33 30 33 33 42 44 44 51 57
55 54 56 58 59 59 59 59 59 59 59 59 60 60 60 60 49 38 48 59 63 65 41 36 37 38 41 45 47 43 42 39 39 36 33 30 28 31 31 34 40 40 44 52 54
55 54 55 58 58 58 58 58 59 59 59 59 59 60 60 57 38 25 62 62 65 62 42 42 41 36 39 44 41 43 41 40 35 33 32 30 30 32 31 35 33 35 44 51 53
56 54 56 58 58 58 58 59 59 59 59 59 59 59 60 47 19 36 66 66 67 48 42 45 42 37 39 39 37 38 36 35 36 36 32 31 32 31 33 33 33 38 45 50 52
56 54 56 57 57 58 58 58 58 58 59 59 59 58 50 38 32 35 62 66 52 44 38 45 41 40 38 36 34 35 35 33 33 32 33 33 33 31 33 34 35 41 47 49 51
54 55 56 56 57 57 58 58 58 57 58 58 58 58 45 35 31 37 40 48 42 40 39 43 43 40 39 34 33 33 34 33 32 32 32 31 32 31 31 35 39 44 45 47 48
54 55 55 56 56 56 57 57 58 58 58 58 58 52 44 36 38 42 36 31 36 38 40 40 41 40 37 34 35 32 30 31 31 32 31 31 29 30 31 35 37 42 43 43 44
54 54 54 54 55 56 56 56 57 57 58 57 58 50 38 34 40 44 38 28 38 40 40 42 43 39 35 33 29 29 30 31 30 30 31 29 35 26 30 33 35 37 40 42 40
54 54 53 54 54 54 54 55 56 57 57 57 51 45 32 45 38 34 28 27 37 38 40 40 41 38 31 30 29 27 38 36 32 28 29 27 33 29 31 31 33 34 35 38 37
53 54 52 53 53 54 54 55 56 55 52 50 47 46 40 29 27 25 27 32 33 36 35 35 36 40 32 29 33 30 26 26 33 27 28 28 27 27 31 31 31 31 32 34 34
53 54 55 54 54 54 54 46 36 40 44 31 35 38 36 36 32 26 30 29 32 33 32 30 39 41 38 35 35 33 29 28 21 23 24 23 24 25 27 31 32 32 30 30 31
53 53 55 54 55 55 52 40 35 41 38 39 33 35 38 39 26 28 32 25 27 29 33 30 32 39 35 24 23 21 22 24 23 26 26 25 25 25 28 29 31 31 31 30 30
52 53 54 53 54 53 48 43 44 42 39 35 39 33 33 34 30 28 30 26 22 26 32 38 35 24 27 30 32 29 27 23 18 26 26 26 19 24 24 27 28 29 32 31 31
54 53 54 55 51 47 43 43 48 46 29 27 32 32 34 39 31 32 34 28 25 20 22 23 26 27 24 22 21 20 24 24 25 23 15 24 8 20 20 25 22 22 30 31 33
54 54 55 56 48 47 47 47 47 42 25 29 30 34 36 34 30 30 32 32 24 24 26 24 27 27 24 22 24 25 29 27 27 24 22 22 18 16 24 22 19 23 28 31 32
54 55 55 53 52 50 49 45 44 35 22 29 32 30 30 35 30 30 29 30 31 27 27 28 28 27 27 29 28 30 26 28 28 25 19 18 18 14 20 18 19 25 28 30 30
56 56 55 51 46 48 47 41 32 27 26 25 26 29 28 30 29 26 25 25 22 20 20 26 26 26 28 27 28 25 24 15 15 18 12 21 19 19 20 19 23 27 28 29 29
56 56 54 51 49 49 44 35 27 26 27 31 28 26 27 29 29 28 24 20 22 20 20 20 21 25 23 25 22 25 24 13 8 8 15 21 17 20 17 21 23 27 29 29 29
55 49 48 45 49 49 38 26 24 28 28 31 29 20 27 27 27 28 25 22 20 24 16 14 18 20 21 23 25 25 23 23 17 16 13 14 15 17 16 17 20 23 26 27 26
44 40 40 39 46 40 35 29 26 26 28 29 22 24 21 30 27 27 25 25 20 18 19 19 17 19 20 22 23 25 23 20 20 11 8 6 10 13 16 16 18 20 23 25 26
40 34 35 35 41 34 25 22 26 25 27 28 28 27 27 25 26 25 24 26 23 17 17 17 17 15 19 21 22 21 21 19 19 16 8 5 8 16 17 17 18 19 23 25 26
38 28 32 36 30 29 24 28 32 24 26 25 28 28 28 25 25 24 24 26 25 22 17 16 19 13 12 14 18 20 19 19 14 12 15 16 13 15 17 18 19 21 24 26 27
34 34 31 34 25 22 27 23 24 24 22 23 24 24 23 24 25 26 27 26 28 23 18 18 13 9 13 16 16 15 17 18 19 20 17 12 12 16 17 19 20 22 24 26 26
33 27 28 32 30 25 23 23 23 23 22 19 20 20 21 22 26 26 24 26 29 31 30 23 15 10 11 17 18 14 14 17 16 18 13 14 13 15 18 19 22 24 24 24 26
32 29 27 26 28 26 25 23 21 20 20 16 18 18 21 20 21 22 23 22 28 32 22 19 8 10 12 14 17 16 15 15 15 14 12 13 13 14 17 19 22 24 24 25 25
34 28 25 21 22 27 28 23 22 18 18 19 16 14 15 18 20 23 21 17 15 24 19 20 18 18 16 19 20 19 19 17 15 14 14 14 17 19 19 21 22 23 25 25 25
37 32 28 26 23 24 24 23 23 16 17 18 16 16 16 19 22 26 25 24 22 19 19 17 23 23 21 20 19 19 20 22 21 21 20 19 20 22 22 23 24 26 26 26 26

GFSSW_sfc_dewp_069.txt.gz
Dewpoint
55 55 55 57 59 59 59 59 60 60 60 60 60 60 60 61 60 45 37 40 48 59 60 44 41 40 46 46 50 49 44 39 39 37 37 36 38 32 30 30 34 43 42 49 57
55 56 55 56 58 59 59 59 59 59 59 60 60 60 60 60 49 39 46 58 62 63 39 41 38 39 41 45 47 44 43 41 39 38 37 34 35 31 28 28 35 40 43 52 57
55 56 55 56 58 59 58 59 59 59 59 59 60 60 60 57 41 22 64 61 60 61 41 41 39 40 39 44 44 42 43 42 38 37 36 33 29 31 29 34 34 37 39 49 53
54 56 55 57 58 58 58 59 59 59 59 59 59 59 60 49 23 37 64 65 65 47 40 42 43 41 39 41 43 39 41 40 38 35 33 32 31 31 32 36 34 34 37 47 51
55 55 55 56 57 58 58 58 58 58 58 59 59 58 51 38 34 30 57 61 54 46 40 42 45 43 40 40 40 38 38 35 36 34 33 32 33 32 33 33 33 34 40 45 47
55 54 55 56 57 57 57 58 58 58 58 59 58 58 47 38 32 28 34 48 47 42 39 41 46 46 41 38 37 36 36 34 32 32 32 33 34 32 34 34 33 36 40 43 45
54 54 55 55 55 56 57 57 57 57 57 58 58 52 45 39 32 36 36 32 41 42 39 41 46 45 44 39 38 35 33 34 33 33 33 33 33 32 34 33 33 36 38 41 45
53 54 54 55 55 55 56 56 56 57 57 58 58 49 42 38 34 34 34 34 29 35 40 41 42 47 43 37 35 36 38 35 33 32 33 31 37 34 31 29 31 34 36 41 42
53 54 54 53 54 54 55 55 56 57 57 57 51 45 37 43 34 32 36 28 32 35 39 41 43 42 40 38 36 33 37 40 43 34 33 31 36 31 29 28 30 30 32 38 39
53 54 54 53 53 54 55 55 56 55 52 47 44 41 40 30 33 32 32 27 34 36 37 40 42 40 37 37 35 36 37 39 40 43 29 32 32 32 29 28 28 27 29 32 36
53 54 54 54 54 55 53 47 42 43 41 36 33 35 33 36 29 24 25 29 32 35 37 36 39 38 40 38 36 37 37 37 40 24 25 28 29 28 25 30 32 30 28 28 31
52 53 54 54 55 55 52 43 37 41 39 39 34 31 33 32 28 23 28 29 31 32 35 33 37 39 40 40 38 34 34 36 33 26 26 37 32 26 24 28 30 30 30 29 29
52 52 54 55 54 52 46 43 42 43 40 35 37 34 32 34 26 24 29 27 28 31 37 34 35 35 42 32 30 33 33 32 29 30 31 26 25 20 26 26 26 27 31 30 30
53 53 54 55 52 44 44 42 46 46 40 29 32 31 33 36 29 31 31 29 24 27 35 37 32 31 33 37 34 35 32 30 26 22 19 23 14 19 20 24 21 24 28 31 32
53 54 54 55 50 48 46 47 46 45 28 27 29 32 34 34 28 28 32 31 24 24 30 27 24 30 34 29 33 32 27 24 25 21 20 18 19 12 22 22 21 26 30 32 32
54 55 54 52 51 49 49 46 45 40 24 28 30 30 30 33 28 32 29 32 33 26 26 27 30 28 29 31 28 29 27 27 26 22 17 12 18 12 19 19 21 27 30 31 31
56 56 54 48 46 48 47 42 33 25 26 25 27 28 28 32 25 25 24 27 23 25 27 25 25 28 28 28 29 27 23 18 20 22 13 18 16 16 20 22 26 28 29 30 31
57 56 53 48 45 46 45 37 28 27 29 29 27 26 27 30 27 25 26 24 25 22 22 21 22 26 26 26 23 24 22 15 11 9 13 21 15 19 20 23 27 29 29 30 30
56 50 46 42 47 47 42 28 25 28 28 29 26 27 32 26 27 25 24 22 21 22 22 22 22 23 23 25 25 24 19 23 17 15 12 10 17 17 18 21 24 26 27 28 28
45 37 34 42 44 44 35 32 26 27 29 28 28 27 31 27 26 28 23 27 25 21 21 18 19 22 22 24 25 26 24 19 18 12 13 10 9 12 18 18 19 21 24 25 26
44 30 38 38 42 35 27 24 26 26 28 27 29 26 24 26 28 27 23 27 23 20 20 19 18 19 21 23 22 23 21 20 21 16 11 8 12 17 17 18 18 21 24 25 25
36 27 33 37 32 29 22 25 31 25 27 27 29 29 28 28 25 25 23 27 25 23 21 19 21 16 16 16 18 22 20 20 17 14 12 14 13 15 18 18 20 21 25 26 27
32 29 33 35 27 27 26 23 25 25 24 23 24 27 25 26 27 27 27 28 28 24 19 20 16 12 14 16 15 15 17 17 17 20 16 14 14 15 18 19 20 22 24 26 26
35 25 28 31 29 27 24 23 21 25 24 20 21 22 23 24 26 27 25 27 29 29 31 30 17 15 15 20 16 13 14 15 15 16 15 15 15 17 19 20 20 23 24 24 26
35 28 28 24 24 26 23 22 20 21 22 19 20 21 21 20 23 23 25 25 28 32 23 23 14 9 10 12 13 13 14 14 14 14 13 15 14 15 16 19 20 23 24 24 25
36 29 27 23 23 23 27 22 22 20 20 19 18 19 18 18 21 22 23 20 16 24 19 19 16 14 12 15 16 16 17 15 15 15 14 15 17 19 20 19 20 22 23 24 25
37 37 31 30 21 20 22 23 22 22 18 18 18 18 18 20 23 25 24 23 21 19 17 15 20 20 19 20 21 20 21 22 21 20 19 16 21 22 21 21 22 23 25 25 26

GFSSW_sfc_dewp_072.txt.gz
Dewpoint
56 56 56 55 56 59 60 59 59 59 60 60 60 60 60 61 60 47 39 43 49 63 59 43 44 46 48 54 53 56 51 46 44 43 42 39 39 40 34 33 37 41 49 50 56
55 55 57 56 56 58 59 59 59 59 59 60 60 60 60 61 52 43 48 60 62 63 37 39 42 44 46 50 52 50 49 46 45 43 42 40 40 32 30 30 35 41 47 56 57
54 55 57 56 57 59 59 59 59 59 59 59 59 60 60 58 44 28 64 67 61 59 37 39 40 43 46 48 50 49 46 46 47 44 43 38 39 34 32 35 36 39 43 51 55
55 55 56 56 57 58 58 58 59 59 59 59 59 59 60 51 30 37 62 62 65 44 36 41 40 44 45 43 48 48 44 44 47 45 42 37 36 33 34 41 35 37 43 49 51
54 55 55 56 56 57 58 58 58 58 58 58 58 59 53 40 39 38 57 53 54 49 37 40 41 44 45 44 46 48 47 43 39 43 38 37 36 39 34 37 34 37 44 46 48
53 55 55 56 56 57 57 57 58 58 58 58 58 58 49 41 40 36 30 33 48 45 41 42 41 46 45 44 44 41 46 42 39 40 37 37 38 37 37 36 35 35 40 44 46
53 54 55 55 55 56 56 56 57 57 57 57 58 54 47 43 41 40 39 36 35 46 42 41 41 47 47 44 41 41 43 43 43 42 35 35 37 35 37 36 34 35 38 41 45
53 54 55 55 55 55 55 56 56 57 57 57 58 52 44 43 41 39 36 36 36 37 44 43 43 47 47 41 39 42 45 41 42 41 40 35 39 36 34 33 32 34 35 40 43
54 54 54 53 53 53 54 55 56 57 57 57 52 47 41 45 37 37 33 32 34 30 37 39 45 45 48 41 40 42 40 42 39 44 41 39 37 35 31 30 31 31 32 39 40
52 54 55 55 55 54 56 55 56 56 52 50 46 41 39 34 35 31 30 34 31 33 38 40 42 42 43 41 39 37 36 40 42 47 45 44 39 38 40 29 29 29 29 34 38
53 53 55 54 55 55 53 48 42 46 44 38 37 36 34 34 34 30 31 32 31 35 36 39 40 40 37 41 40 38 39 39 38 36 43 44 39 39 38 32 33 32 30 29 35
54 53 55 55 56 55 51 46 37 41 39 41 39 38 33 32 30 26 26 26 33 33 36 38 39 39 40 37 38 37 37 41 41 30 32 37 40 41 40 32 32 30 29 30 30
53 53 54 56 56 53 48 44 45 46 41 40 37 36 34 32 30 25 29 30 31 33 35 37 36 38 37 38 37 37 36 37 34 32 38 38 32 31 28 28 29 28 31 31 31
53 55 55 56 53 48 45 45 46 45 41 31 31 31 31 35 29 29 30 33 28 31 36 34 37 35 42 39 38 35 35 37 34 31 31 28 23 25 26 27 25 28 31 32 33
54 55 56 55 50 48 47 48 45 46 28 28 29 31 32 34 33 26 37 36 30 29 36 36 36 38 36 38 38 34 35 37 37 29 25 26 23 22 24 25 25 29 31 32 33
54 55 56 51 51 48 50 46 44 42 24 30 29 29 29 31 28 29 29 36 35 30 35 31 31 36 36 30 30 32 31 30 32 27 21 19 20 20 22 21 26 29 30 32 32
56 56 54 49 45 47 46 44 39 34 32 30 27 30 30 31 27 23 26 27 30 29 28 27 28 32 34 34 35 32 28 27 26 25 22 19 18 21 21 26 27 29 29 31 31
56 57 54 51 47 47 45 39 34 28 29 34 29 27 30 32 27 26 24 29 29 32 31 27 24 30 33 31 28 29 28 23 19 20 21 24 18 20 23 28 29 29 30 30 32
56 50 50 46 49 47 42 34 26 28 28 32 37 31 36 34 29 26 27 29 27 24 27 30 24 25 25 27 27 27 26 29 20 15 14 17 19 20 22 25 27 27 29 31 30
49 47 42 40 44 44 37 32 28 28 30 36 37 35 36 34 27 29 27 29 29 25 25 23 22 25 24 28 30 29 26 24 22 15 15 14 18 18 20 22 24 25 26 28 28
47 38 40 43 42 39 31 27 24 27 29 28 29 33 34 33 30 29 27 29 26 28 32 26 22 24 26 26 26 26 24 24 23 21 15 13 17 18 20 20 21 23 25 26 26
41 33 37 40 35 33 29 26 32 26 32 28 30 31 31 29 31 31 27 30 29 28 27 30 27 20 20 19 21 24 24 22 21 17 17 16 19 17 19 20 22 24 26 27 28
38 33 36 36 29 29 29 26 25 24 28 26 27 32 29 30 30 32 30 33 34 30 30 28 22 17 19 21 21 20 23 23 20 23 20 18 17 17 19 20 21 24 26 27 28
38 31 32 32 31 26 27 27 25 31 25 23 23 26 26 27 31 31 28 31 35 33 34 32 25 19 20 23 21 16 17 17 18 18 15 18 18 18 19 21 21 24 26 26 27
36 30 31 27 27 25 24 27 23 23 24 23 23 23 23 23 26 27 28 28 32 33 30 27 22 14 14 14 14 15 17 17 15 15 15 17 17 18 20 22 21 24 25 24 26
33 34 36 33 26 21 26 24 24 23 22 23 21 23 22 24 23 25 27 25 25 29 26 24 23 19 15 16 19 18 18 17 17 16 15 17 18 22 21 20 19 22 24 24 25
38 38 35 36 31 23 21 21 25 24 22 20 20 22 22 25 25 27 25 25 24 24 21 21 23 23 23 24 23 22 23 23 21 21 22 18 25 23 22 22 22 22 25 25 26

GFSSW_sfc_dewp_075.txt.gz
Dewpoint
56 56 56 57 56 57 58 60 59 59 60 60 60 60 60 61 60 53 45 47 51 62 59 43 45 45 48 47 50 53 47 45 46 45 42 41 35 34 34 36 38 44 49 51 55
55 55 56 57 56 58 59 59 59 59 59 59 60 60 60 60 55 48 52 56 62 64 41 38 40 44 43 45 49 47 46 44 47 46 43 43 35 30 27 32 39 44 54 54 56
53 55 56 57 56 58 59 59 59 59 59 59 59 59 60 59 48 40 65 64 67 61 42 37 38 41 42 46 47 47 43 46 47 48 46 42 36 33 28 31 37 41 53 56 56
53 55 56 56 56 57 58 58 58 58 57 58 58 59 60 55 26 38 62 61 65 58 40 38 42 41 41 41 44 46 49 50 47 49 42 41 36 31 31 36 37 42 50 55 55
53 54 55 55 56 57 57 58 58 58 58 58 58 58 55 46 43 44 58 53 43 57 39 36 40 41 42 43 47 46 49 51 41 44 45 40 36 33 33 34 37 42 49 52 53
54 54 55 55 56 56 56 57 57 57 57 58 58 58 52 43 46 44 42 41 37 51 45 37 41 42 44 45 45 46 48 48 43 44 45 36 38 36 37 34 33 42 46 48 50
54 54 55 55 56 56 56 56 56 57 57 57 58 54 49 45 46 43 42 42 41 42 42 39 40 42 48 44 42 41 40 41 43 45 43 43 40 37 36 34 32 34 41 45 47
54 54 55 55 55 54 54 55 57 57 57 57 57 54 45 46 45 44 43 42 40 37 42 45 45 42 42 41 41 39 41 37 42 42 41 42 40 38 32 32 33 34 36 41 44
54 54 54 55 55 54 55 55 56 56 57 57 54 51 44 49 44 44 42 39 35 35 36 39 42 42 47 38 37 41 37 40 36 43 42 43 37 42 48 39 29 31 34 39 42
54 55 54 55 55 56 56 56 56 56 54 52 50 44 42 38 36 34 40 38 34 36 33 37 41 40 45 40 34 35 37 40 40 45 44 42 43 48 50 46 39 29 30 38 41
54 56 56 55 55 55 53 49 40 46 50 40 41 40 37 36 34 32 33 32 33 33 34 38 38 39 43 42 41 39 37 38 42 48 46 48 45 43 39 37 34 29 31 30 38
53 55 56 55 56 57 53 48 43 43 42 43 41 41 41 40 35 32 32 30 31 33 37 38 37 40 42 43 42 41 40 41 40 35 34 41 38 38 41 39 31 30 29 31 30
52 55 56 56 56 53 49 47 47 46 42 42 42 40 40 38 36 32 31 32 34 33 37 36 37 42 43 39 39 40 39 41 40 40 33 35 33 33 35 30 29 29 31 32 32
53 54 54 56 52 50 48 49 46 47 39 37 36 36 34 41 37 33 38 39 31 31 37 39 42 39 40 39 39 37 39 37 31 32 31 33 25 23 27 25 28 30 31 32 33
55 55 55 56 50 47 49 50 46 46 27 33 34 34 34 36 37 32 42 38 34 36 39 40 41 39 39 40 42 39 39 36 33 31 24 26 21 20 26 25 28 29 30 31 32
55 55 55 52 51 50 49 50 47 41 29 32 32 34 32 36 35 35 35 39 41 38 40 39 42 40 33 36 39 35 32 34 28 25 19 21 22 18 22 23 28 29 30 31 32
56 56 54 51 48 50 47 44 38 32 35 31 33 34 36 35 32 29 29 33 34 34 33 33 32 35 42 34 38 34 30 26 24 20 18 19 20 18 22 26 28 29 30 31 31
56 56 55 52 52 50 46 40 31 28 31 35 37 35 35 36 32 30 28 30 35 32 35 28 24 31 37 37 27 32 27 26 20 22 22 19 16 19 25 28 29 29 30 31 32
55 50 50 49 51 50 43 35 32 29 32 34 35 33 36 36 33 30 26 29 27 33 32 33 26 30 30 33 32 28 25 27 18 16 15 20 18 20 27 28 28 29 29 30 29
48 47 46 48 48 45 40 35 29 31 37 38 33 36 34 34 34 29 28 30 31 27 28 31 21 26 28 27 28 27 26 17 20 9 14 15 17 18 22 25 26 26 27 28 28
46 37 40 44 43 41 35 31 29 31 31 31 35 35 35 36 32 31 29 31 29 29 28 26 27 25 25 25 24 21 23 22 20 21 15 11 15 19 21 24 25 25 26 27 27
41 33 38 42 36 37 32 32 34 31 33 30 31 31 34 30 31 31 31 33 32 31 24 25 24 19 19 18 20 22 22 20 19 14 16 18 17 18 21 23 24 24 26 27 27
40 34 37 37 29 29 29 28 28 29 28 29 28 31 28 30 31 33 31 34 32 32 30 27 22 16 14 17 16 17 20 21 21 23 17 16 15 18 19 21 24 25 26 27 27
38 32 32 33 32 29 28 25 27 29 27 26 23 25 25 26 28 29 29 33 35 34 35 31 23 17 20 20 19 13 15 19 18 17 14 16 16 17 19 21 23 25 26 27 27
37 30 33 27 29 28 27 25 23 25 25 23 21 23 23 21 24 26 29 28 31 34 28 24 18 13 14 14 14 15 17 17 14 15 13 16 16 18 19 20 21 25 26 26 27
35 36 36 34 33 30 30 21 22 25 24 23 21 23 20 20 22 23 28 25 24 27 22 22 20 17 13 16 17 18 18 18 18 16 15 17 18 22 20 21 21 23 24 25 26
39 40 35 35 32 31 29 25 28 25 22 20 21 20 21 24 25 24 24 25 24 21 19 18 20 23 22 22 22 20 23 21 20 18 18 17 20 21 21 21 22 23 24 26 25

GFSSW_sfc_dewp_078.txt.gz
Dewpoint
55 56 56 57 57 57 59 59 59 59 59 60 60 60 60 60 60 53 47 45 52 57 64 46 41 45 49 45 49 52 46 46 46 48 46 42 33 35 37 38 42 47 51 52 52
54 54 55 56 57 57 59 59 59 59 59 59 59 59 59 60 55 48 52 55 57 59 54 43 39 40 43 43 47 46 45 46 47 48 43 41 33 30 32 38 43 51 53 52 53
54 54 55 56 56 57 58 59 59 59 57 57 58 58 59 59 48 42 60 58 60 63 53 37 39 43 43 46 45 47 43 50 45 46 46 41 33 32 32 34 41 50 52 53 54
54 54 55 56 56 57 57 58 58 57 57 57 57 57 58 55 18 35 63 62 57 48 50 38 37 40 41 40 43 45 48 50 49 46 42 41 38 30 31 30 37 53 53 54 54
54 55 55 56 56 56 57 57 57 57 58 58 58 57 55 46 43 42 53 51 43 50 47 37 38 40 41 41 43 44 48 52 49 45 43 41 38 34 35 36 40 53 55 55 55
54 55 55 55 56 56 57 57 57 57 57 57 57 57 51 42 44 45 45 43 42 42 47 38 38 41 42 43 42 46 48 49 44 44 48 37 42 44 37 37 42 51 54 55 55
54 55 55 55 56 55 55 55 55 56 56 57 57 53 48 44 45 43 44 42 42 43 41 43 36 39 43 45 46 41 43 41 41 42 44 49 36 40 35 34 41 45 49 51 52
53 54 55 55 55 56 56 56 57 57 56 57 57 51 45 46 46 46 45 45 44 43 43 43 40 42 42 42 41 39 40 37 41 39 41 45 38 43 46 37 35 40 43 45 47
53 54 55 55 55 55 56 56 57 56 57 57 54 50 43 50 43 45 45 42 40 38 37 35 45 42 42 39 38 41 36 37 36 41 44 44 40 40 48 42 36 31 34 40 43
53 54 55 55 55 55 57 57 56 55 54 53 51 46 43 39 40 38 38 42 38 36 35 33 39 39 44 38 35 36 37 38 35 40 44 42 39 46 50 49 46 41 33 36 42
52 55 55 54 55 55 55 50 43 42 48 41 41 42 40 40 41 37 37 38 36 35 30 36 35 38 41 39 38 38 37 37 41 46 43 40 43 44 46 46 44 42 30 31 39
52 54 55 55 56 56 53 47 45 44 41 43 43 42 42 42 39 40 34 28 31 30 33 38 36 39 44 45 41 40 37 38 36 48 42 46 45 47 45 41 39 33 31 30 31
52 53 54 55 56 52 50 47 49 45 41 42 43 42 41 42 39 37 35 32 31 31 37 35 36 40 43 44 43 41 40 39 35 41 36 36 35 34 38 34 30 30 31 32 32
54 54 54 55 49 49 48 50 49 46 38 36 36 36 36 42 37 37 40 40 38 35 39 38 41 40 42 41 42 40 41 42 40 37 36 37 30 23 29 26 29 30 30 31 33
55 55 55 55 45 48 46 49 48 46 27 34 34 36 34 37 37 33 42 38 38 38 38 37 41 41 40 40 42 40 40 41 42 36 28 28 22 21 25 26 28 29 31 31 32
55 56 55 52 50 49 50 48 47 36 26 34 36 35 37 39 36 36 35 39 43 39 40 39 43 42 38 39 41 41 36 38 35 30 25 25 24 20 24 24 28 29 30 31 31
55 56 55 50 37 49 48 44 36 29 33 31 34 36 35 36 34 29 30 33 33 33 35 38 37 41 45 38 40 39 37 29 24 20 21 21 22 22 22 27 28 29 30 30 29
55 56 53 53 51 50 45 38 29 30 31 37 37 35 34 37 34 30 28 33 36 38 36 32 32 34 38 36 36 37 38 24 18 19 19 21 19 18 26 28 29 30 31 31 31
55 49 50 50 52 50 40 32 33 27 32 35 35 36 34 37 35 31 28 30 28 35 35 35 27 29 33 36 33 27 28 26 18 18 17 19 18 21 28 28 29 29 29 30 29
48 45 44 49 50 44 36 34 32 29 37 36 32 37 34 33 34 31 28 29 30 29 25 26 22 28 28 29 34 29 31 20 19 11 10 15 16 19 26 27 28 28 28 28 27
45 35 39 48 44 40 29 33 33 31 32 35 33 34 35 35 31 30 30 30 30 28 28 26 26 23 24 27 30 26 28 24 24 20 14 12 16 19 24 27 27 27 27 27 27
41 23 38 41 31 37 34 34 36 29 31 29 31 36 35 34 30 30 32 34 31 31 25 26 27 20 20 19 20 25 22 20 20 14 16 16 16 18 24 27 27 26 27 28 28
40 35 36 37 26 28 30 29 29 28 28 28 26 30 29 28 30 32 31 35 35 33 29 25 23 17 15 16 15 18 21 21 22 23 17 14 13 18 21 24 25 25 26 27 27
37 30 32 33 32 31 28 26 25 30 26 26 23 24 24 24 29 28 29 33 33 33 34 31 25 17 16 17 17 13 16 20 18 17 15 16 15 17 21 23 25 26 26 26 26
37 27 32 26 28 31 28 27 24 23 26 24 21 23 22 20 21 26 29 27 31 35 28 24 19 13 14 14 13 14 16 18 15 15 12 14 16 17 20 23 24 26 26 26 26
35 36 35 32 34 32 32 23 29 29 26 24 20 22 21 19 20 21 26 25 24 27 23 22 18 18 11 15 17 16 17 18 17 16 15 16 17 21 20 21 23 25 26 26 27
42 42 36 34 31 29 28 29 31 30 27 21 20 19 19 23 24 24 24 25 24 21 20 16 20 22 18 23 22 19 22 19 18 17 16 15 18 21 21 21 21 24 25 26 25

GFSSW_sfc_dewp_081.txt.gz
Dewpoint
55 54 56 56 57 57 58 59 56 59 59 59 58 58 59 60 60 54 47 43 53 57 58 53 42 43 48 44 49 53 48 47 46 47 46 44 37 38 40 42 43 49 50 50 53
54 55 54 56 56 57 57 58 59 58 58 57 58 58 58 59 55 49 51 53 57 61 54 48 38 38 42 42 46 47 45 46 48 49 44 44 34 31 37 42 46 51 52 51 55
54 55 54 55 56 56 57 57 58 58 56 56 56 57 58 58 49 34 53 60 59 54 56 51 38 38 41 45 44 45 44 48 50 47 48 43 34 32 38 38 45 49 51 51 55
54 55 55 55 56 56 56 57 57 56 57 57 57 57 58 54 13 32 55 56 56 47 50 51 42 36 40 40 44 45 46 49 50 45 43 41 36 30 36 35 38 49 51 51 53
54 54 55 55 56 56 56 56 56 56 56 56 57 57 55 46 43 44 53 51 44 42 50 38 36 36 40 41 43 44 48 51 49 48 43 41 39 33 32 36 45 53 51 51 52
54 54 54 55 55 56 56 56 56 56 56 56 56 57 48 41 43 45 45 43 42 42 41 43 36 38 39 42 40 44 47 50 50 47 47 40 41 38 37 40 53 53 53 52 53
53 54 54 55 55 56 56 56 56 57 57 57 55 53 47 45 45 45 45 44 42 42 41 43 38 36 40 42 45 46 46 46 42 44 43 47 38 37 41 39 50 53 54 55 55
54 54 55 55 55 55 56 56 56 57 57 57 56 53 46 47 47 47 46 45 46 46 44 43 44 37 41 41 41 40 41 39 40 41 42 44 38 40 47 41 43 48 51 52 52
54 54 55 55 55 56 56 57 57 57 56 56 53 49 43 48 43 44 47 42 41 40 41 38 42 37 38 39 37 39 36 37 37 40 42 42 40 39 49 43 37 39 43 46 48
53 54 55 55 55 55 56 57 56 55 54 54 51 46 44 36 40 40 41 42 39 36 35 35 41 39 39 38 34 36 37 35 34 40 43 42 42 46 49 48 39 34 36 41 42
54 54 55 55 56 56 54 48 44 42 44 42 41 44 42 42 42 40 40 39 36 33 30 33 35 36 38 39 38 38 37 36 38 41 41 42 43 44 50 50 48 46 38 32 39
54 54 55 55 56 56 52 45 44 44 41 43 43 43 44 43 40 39 36 31 31 29 33 35 32 35 39 44 39 38 37 37 37 46 40 41 39 45 46 45 43 43 38 30 38
55 54 54 56 56 51 49 47 49 45 41 41 43 43 42 42 39 38 34 36 34 30 35 33 36 39 43 44 40 40 38 37 38 42 36 41 37 38 39 41 33 31 31 31 33
54 55 55 56 49 48 48 50 49 46 36 33 36 37 36 41 36 39 39 38 39 37 38 37 40 39 42 42 43 39 42 41 40 39 37 39 34 29 28 31 29 30 31 32 32
55 56 56 56 47 46 46 48 48 44 24 32 34 36 36 36 36 34 41 39 35 36 39 36 41 39 40 40 43 40 43 43 41 38 36 30 28 28 26 26 28 29 30 31 31
55 56 56 50 49 49 50 48 47 33 23 33 36 36 35 38 38 37 35 39 42 40 41 39 43 42 40 41 43 43 38 38 38 36 29 30 30 28 24 24 27 29 30 31 31
56 56 55 53 38 49 48 43 33 25 30 31 34 37 36 34 35 29 29 34 35 32 35 39 40 41 44 37 40 40 38 29 29 30 27 26 27 29 21 24 28 28 29 29 30
56 56 54 53 51 50 45 35 26 29 28 35 36 37 33 37 35 35 30 35 36 40 37 34 32 37 40 38 35 38 38 28 22 19 20 26 21 20 26 29 29 30 30 30 30
54 48 49 50 52 50 34 25 31 29 30 34 33 33 33 35 36 32 29 31 27 38 35 36 34 39 38 37 40 35 34 35 21 18 19 19 18 21 28 28 29 29 29 29 29
47 45 42 49 50 42 31 30 32 33 33 35 30 34 33 33 32 31 30 29 29 29 33 32 32 29 34 35 33 30 39 24 28 14 10 13 16 18 26 27 28 29 28 27 28
43 34 36 49 42 35 26 29 33 34 31 34 32 33 34 33 33 28 29 31 31 30 29 25 27 24 24 25 30 26 25 23 21 18 13 12 15 20 25 28 28 28 28 27 27
40 20 37 40 33 35 32 35 37 31 31 30 31 34 33 34 31 29 30 33 31 30 27 27 24 19 20 23 20 27 24 21 22 16 16 16 15 18 20 28 28 28 28 28 27
39 36 38 37 29 25 29 29 30 28 27 28 27 30 30 26 26 31 31 35 34 32 27 24 25 17 16 17 16 19 24 22 22 22 15 14 14 20 24 27 28 27 27 27 28
35 28 32 34 32 31 28 27 25 29 28 26 24 24 23 22 27 28 29 32 32 32 35 30 25 18 16 16 17 13 16 20 19 18 16 17 15 17 23 26 26 26 27 27 27
36 25 33 28 28 30 31 27 25 26 27 25 23 23 21 20 20 23 27 27 30 35 28 24 21 16 15 19 13 13 14 19 16 16 16 16 16 17 20 25 26 26 26 26 26
33 34 35 32 33 32 32 24 28 30 27 24 22 22 19 20 19 20 24 24 23 25 22 22 17 18 12 15 18 16 15 18 17 16 14 16 16 20 20 23 25 25 26 25 26
42 41 36 33 30 28 25 28 31 30 29 25 19 18 18 21 23 23 24 24 24 21 20 17 20 20 15 26 23 21 22 19 17 17 16 15 18 20 20 21 23 25 26 26 27